                ,  0.301,  0.397,  0.494,  0.590,  0.687,  0.784,  0.880,  0.977,  1.073,  1.170,  1.267,  1.363,  1.460,  1.556,  1.653,  1.749,  1.846,  1.943,  2.039,  2.136,  2.232,  2.329,  2.426,  2.522,  2.619,  2.715,  2.812,  2.909,  3.005,  3.102,  3.198,  3.295,  3.392,  3.488,  3.585,  3.681,  3.778,  3.875,  3.971,  4.068,  4.164,  4.261,  4.357,  4.454,  4.551,  4.647,  4.744,  4.840,  4.937,  5.034,  5.130,  5.227,  5.323,  5.420,  5.517,  5.613,  5.710,  5.806,  5.903,  6.000,  6.096,  6.193,  6.289,  6.386,  6.483,  6.579,  6.676,  6.772,  6.869,  6.965,  7.062,  7.159,  7.255,  7.352,  7.448,  7.545,  7.642,  7.738,  7.835,  7.931
2016/12/23 00:00,  999.0,    5.3,    6.7,    7.1,    7.5,    8.5,    8.9,    9.3,    9.8,    9.8,    9.5,    9.7,   11.5,   11.3,   11.3,   11.9,   12.7,   12.5,  999.0,  999.0,  999.0,  999.0,  999.0,  999.0,  999.0,  999.0,  999.0,  999.0,  999.0,  999.0,   17.8,   20.3,   20.2,   21.8,   22.9,   23.1,   23.7,   24.7,   24.0,   22.8,   23.0,   22.9,   23.5,   23.4,   23.0,   23.1,   22.9,   22.6,   22.9,   23.3,   23.4,   23.4,   24.6,   25.3,   25.8,   26.4,   26.0,   25.0,   23.7,   22.3,   22.0,   21.5,   22.0,   22.0,   21.9,   21.7,   21.6,   21.8,   20.8,   20.7,   20.9,   19.9,   20.3,   20.7,   20.6,   22.0,   21.2,   21.1,   21.8,   21.6
2016/12/23 00:10,  999.0,    4.0,    5.2,    5.6,    6.4,    7.5,    7.9,    8.4,    9.2,    9.4,    9.6,   10.1,   11.2,   11.9,   11.8,   12.1,   12.3,   12.4,   12.3,  999.0,  999.0,  999.0,  999.0,  -40.2,  999.0,  999.0,  999.0,  999.0,  999.0,   17.9,   18.2,   19.7,   21.5,   23.1,   24.0,   24.1,   24.4,   24.4,   24.5,   24.6,   23.9,   23.9,   23.9,   24.2,   24.8,   25.0,   25.2,   25.2,   25.3,   25.3,   25.8,   25.5,   25.3,   25.3,   24.9,   24.4,   23.5,   23.0,   22.5,   22.4,   22.2,   21.6,   20.3,   20.2,   20.1,   20.1,   20.2,   20.4,   19.9,   19.8,   19.6,   19.5,   18.1,   19.3,   18.3,  999.0,  999.0,  999.0,  999.0,  999.0
2016/12/23 00:20,  999.0,    2.9,    4.1,    5.0,    6.2,    6.9,    7.4,    7.3,    8.1,    8.8,    9.6,    9.7,    9.7,   10.1,   11.0,  999.0,  999.0,  999.0,  999.0,  999.0,  999.0,  999.0,  -39.1,  -39.3,  999.0,  999.0,  999.0,  999.0,   18.8,   19.1,   21.0,   22.2,   23.3,   23.1,   23.3,   23.6,   23.9,   24.4,   24.3,   23.8,   24.1,   24.3,   24.1,   23.7,   24.4,   25.1,   25.3,   25.5,   25.5,   25.1,   24.6,   24.3,   24.5,   24.6,   24.0,   23.8,   24.4,   23.6,   23.1,   22.7,   22.8,   22.8,   22.7,   23.0,   23.1,   23.0,   23.5,   23.0,   22.4,   21.8,   21.4,   21.3,   21.3,   21.5,   21.0,   20.6,   21.4,  999.0,  999.0,  999.0
2016/12/23 00:30,  999.0,    3.0,    3.8,    4.7,    4.7,    6.0,    6.9,    7.8,    9.2,   10.3,   11.2,   11.3,   11.2,   11.1,   10.4,   10.1,   10.2,   10.3,  999.0,  999.0,  999.0,  999.0,  999.0,  999.0,  999.0,  999.0,  999.0,   19.2,   18.9,   19.5,   19.8,   20.6,   21.1,   22.2,   22.4,   23.0,   23.8,   24.9,   25.2,   25.2,   25.0,   24.8,   25.2,   25.8,   25.5,   26.2,   26.3,   26.7,   10.3,  -12.4,   -4.2,    1.1,    1.7,    1.7,   -2.6,   29.4,   30.1,   29.8,  999.0,   26.9,   25.0,   24.7,   24.9,   24.9,   24.8,   24.4,   24.4,   24.1,   23.7,   22.7,   22.4,   22.2,   22.2,   22.1,   22.3,   22.8,   23.4,   23.9,   24.2,   24.7
2016/12/23 00:40,  999.0,    3.2,    4.4,    4.7,    5.9,    5.4,    6.1,    8.0,   10.0,   11.2,   12.9,   13.9,   13.3,   12.6,   11.6,  999.0,  999.0,  -43.5,  -42.6,  -42.1,  -41.9,  -41.2,  -41.2,  -40.8,  -41.4,  999.0,  999.0,  999.0,   17.7,   18.1,   20.1,   19.7,   19.9,   18.9,   20.2,   20.8,   22.9,   23.9,   25.5,   25.3,   26.6,   10.4,  999.0,  -23.2,  -23.2,  -21.5,  -20.5,  -20.1,  -19.8,  -19.9,  -19.7,  -20.2,  -20.7,  -21.8,  -22.5,  999.0,  999.0,   27.9,   26.9,   26.4,   25.1,   24.5,   24.4,   23.8,   23.6,   23.1,   22.9,   22.1,   21.4,   22.0,   22.5,   22.8,   22.8,   23.2,   23.6,   24.4,   25.2,   24.6,  -29.8,  -29.9
2016/12/23 00:50,  999.0,    3.8,    5.1,    5.5,    5.9,    8.5,    8.7,    9.2,    9.0,   10.3,    9.7,    9.4,    8.6,    9.1,    8.8,  999.0,  999.0,  999.0,  999.0,  -43.1,  -42.9,  -42.6,  -42.3,  -42.7,  -41.7,  -39.3,  -37.8,  999.0,  999.0,   18.9,   20.3,   22.2,  999.0,   -2.6,   -2.2,  999.0,  -24.7,  -23.9,  -12.5,  -11.7,  -20.1,  -20.3,  -21.4,  -21.6,  -22.2,  -22.6,  -23.2,  -23.9,  -24.5,  -24.7,  -25.3,  -26.2,  -25.5,  -24.8,  -25.1,  999.0,   25.9,   25.9,   25.1,   22.6,   21.7,   22.1,   22.0,   22.1,   22.1,   21.3,   20.8,   21.0,   21.9,   22.4,   22.5,   22.6,   22.8,   22.7,   22.9,   23.9,  999.0,  999.0,  999.0,  -28.6
2016/12/23 01:00,  999.0,    7.1,    5.6,    8.5,    8.0,   11.4,   12.4,   12.4,   12.8,   12.7,   10.8,    9.8,    9.2,    7.8,    7.2,    5.6,    5.0,    6.9,    8.9,    8.5,   -7.2,  -16.1,  -16.1,  -23.7,  -16.6,   12.0,   12.6,  999.0,  999.0,   21.5,   25.0,   -0.6,  -25.6,  -24.9,  -27.2,  -23.9,  -21.4,  -20.3,  -19.4,  -18.7,  -18.3,  -16.3,  -17.9,  -19.0,  -20.0,  -21.6,  -21.8,  -22.3,  -22.6,  -22.8,  -23.9,  -23.5,  -24.7,  -26.2,  -27.8,  -27.3,  -28.3,   12.2,   23.7,   22.4,   20.8,   20.7,   20.9,   21.1,   21.4,   21.9,   22.2,   22.0,   22.1,   22.2,   22.5,   15.7,   -3.7,  -20.2,  -24.5,  -18.9,  -15.8,  -18.2,  -18.1,  -15.4
2016/12/23 01:10,  999.0,  999.0,    7.2,    9.6,    9.5,   11.0,   12.2,   13.4,   14.9,   13.1,   12.4,   11.7,    9.3,    9.9,    9.2,    6.6,    7.0,    7.3,    8.2,    8.2,    7.7,    9.0,    8.7,    9.2,   10.7,   12.8,   15.4,  999.0,  999.0,    6.6,   -1.6,  999.0,  999.0,  -23.6,  999.0,  999.0,  999.0,  999.0,  -20.3,  -13.9,  999.0,  999.0,  999.0,  -15.5,  -10.8,  -24.7,  -18.0,  -12.8,  -17.4,  -17.3,  -25.7,  -26.4,  -25.5,  -27.5,  -28.3,  -26.7,  -26.1,  -26.2,  -26.6,  -25.7,  -25.1,  -27.0,  -25.1,  -24.7,  -23.0,  999.0,  -23.5,  -24.0,  999.0,  -27.2,  -25.3,  -27.1,  -28.0,  -27.6,  -26.9,  -27.4,  -28.2,   -1.1,   25.5,    7.7
2016/12/23 01:20,  999.0,    4.5,    7.9,    9.2,    8.7,    9.6,   11.3,    9.8,   12.5,   12.0,   12.6,   15.2,   14.8,   13.8,   10.5,   13.9,   10.4,    8.9,    8.1,    7.5,    9.8,   11.6,   12.0,    9.7,    7.2,   11.3,  999.0,    1.2,    0.1,   -0.2,  999.0,  999.0,  999.0,  999.0,    0.2,  999.0,  999.0,   -2.7,  999.0,  999.0,  999.0,   -0.1,   -0.2,    0.1,   -0.1,   -0.1,    0.4,    0.2,    0.6,    0.5,    0.6,   -0.0,    0.1,   -0.2,    0.0,   -0.2,   -0.1,   -0.1,    0.1,   -0.1,  999.0,  999.0,  999.0,   -7.8,  -17.0,  -13.3,  -12.9,  -11.7,  -20.4,  -22.9,  -21.7,  -22.5,  -27.5,  -26.0,  -26.5,  -23.4,  -24.7,  -24.9,  -24.8,  -25.9
2016/12/23 01:30,  999.0,    5.0,    7.1,    8.6,   11.2,   11.7,   11.4,   11.2,   15.0,   13.2,   14.2,   15.7,   13.3,   14.4,   13.8,   11.2,    6.8,    5.2,    5.6,    0.2,    4.1,    6.6,    8.5,    8.9,    8.6,   10.9,  999.0,  999.0,    8.5,   11.5,   13.7,    7.9,  999.0,  999.0,  999.0,  999.0,  999.0,    0.1,   -0.0,   -0.1,    0.2,    0.1,    0.3,    0.1,    0.4,    0.3,    0.5,    0.3,    0.4,   -0.1,   -0.0,    0.0,    0.2,    0.0,   -0.1,    0.0,    0.1,   -0.1,    0.0,    0.1,   -0.2,    0.0,    0.1,   -0.2,    0.1,   -0.0,    0.1,    0.0,    0.1,   -0.1,  999.0,    0.0,  999.0,  999.0,  999.0,  999.0,  999.0,  999.0,  999.0,  999.0
2016/12/23 01:40,  999.0,  999.0,   17.5,   13.7,    8.9,    8.1,   14.0,   12.4,   12.1,   16.3,   15.2,   14.9,   13.4,   14.3,   13.9,   11.3,   10.5,   10.0,    9.4,    8.2,    9.3,    8.5,    7.2,    7.4,    9.7,   10.2,   10.5,   10.5,    9.0,   10.8,    0.6,    0.3,    0.4,    0.2,   -0.1,    0.1,    0.3,   -0.1,    0.1,    0.0,   -0.0,    0.1,    0.1,   -0.2,    0.4,    0.2,    0.0,    0.0,    0.2,    0.2,    0.1,    0.1,    0.1,    0.1,    0.0,   -0.2,   -0.3,   -0.1,   -0.0,    0.0,   -0.0,   -0.1,    0.1,    0.1,    0.2,    0.0,    0.1,    0.1,   -0.0,    0.1,  999.0,    0.2,    0.0,  999.0,  999.0,  999.0,  999.0,  999.0,  999.0,  999.0
2016/12/23 01:50,  999.0,  999.0,    3.1,    1.6,    0.8,    1.0,    0.8,    0.8,    0.9,    1.3,    3.2,    3.7,    2.9,    1.7,    0.8,    1.5,    1.2,    1.1,    2.7,    4.6,    5.2,    7.4,    6.9,    5.0,    3.6,    2.6,    4.1,    2.7,    0.7,    0.2,    0.3,    0.1,    0.2,    0.2,    0.2,    0.3,    1.2,    0.5,    0.2,    0.2,   -0.1,   -0.0,   -0.0,    0.1,    0.1,    0.2,   -0.1,   -0.2,    0.0,    0.0,    0.1,    0.2,   -0.2,   -0.1,    0.0,   -0.1,    0.0,   -0.1,    0.0,    0.1,   -0.2,   -0.1,    0.1,   -0.1,    0.2,    0.1,    0.0,    0.1,    0.2,    0.0,  999.0,   -0.1,    0.0,  999.0,  999.0,  999.0,  999.0,  999.0,  999.0,  999.0
2016/12/23 02:00,  999.0,   -0.1,    0.6,    1.0,    1.0,    1.4,    1.2,    1.3,    1.3,    1.8,    3.5,    2.9,    0.8,    1.8,    1.9,    1.3,    0.5,    0.6,    2.4,    4.0,  999.0,  999.0,  999.0,    2.6,    5.6,  999.0,   -1.5,   -0.9,   -1.2,    0.1,    0.9,    0.2,    0.1,    0.3,    0.4,    0.1,   -0.0,    0.1,    0.4,    0.2,    0.0,   -0.1,    0.1,    0.2,    0.1,    0.1,   -0.0,   -0.1,   -0.0,   -0.1,   -0.0,    0.0,   -0.1,   -0.1,   -0.1,   -0.1,    0.2,    0.2,   -0.1,    0.1,    0.0,    0.0,    0.1,    0.1,    0.0,    0.1,    0.1,    0.1,    0.1,   -0.2,    0.0,   -0.3,    0.2,  999.0,  999.0,  999.0,  999.0,  999.0,  999.0,  999.0
2016/12/23 02:10,  999.0,  999.0,  999.0,   -0.1,   -0.0,  999.0,   -0.2,    0.2,    0.5,    0.5,    1.0,    0.9,    1.0,    0.5,    1.9,    1.2,    1.2,    0.6,    0.5,   -0.4,   -0.1,   -0.5,   -2.5,  999.0,   -2.9,   -1.9,   -2.3,   -1.9,   -1.3,   -0.6,   -0.5,   -0.1,    0.0,   -0.3,   -0.4,   -0.2,   -0.8,   -0.9,   -0.2,    0.1,   -0.2,   -0.2,   -0.2,    0.1,   -0.1,   -0.1,    0.0,   -0.0,    0.1,    0.1,    0.1,    0.1,    0.1,   -0.0,    0.0,   -0.0,   -0.1,   -0.1,    0.1,   -0.2,   -0.1,    0.2,    0.1,   -0.1,   -0.1,    0.1,    0.2,    0.0,   -0.0,   -0.0,   -0.1,   -0.2,  999.0,  999.0,  999.0,  999.0,  999.0,  999.0,  999.0,  999.0
2016/12/23 02:20,  999.0,  999.0,    0.3,    0.1,    0.1,   -0.0,   -0.1,   -0.2,    2.4,    4.4,    8.7,   14.3,   11.5,   11.9,    8.5,    5.0,  999.0,    2.3,    0.7,    0.3,   -0.2,    0.4,    0.7,    0.1,   -0.3,   -1.5,   -1.2,    1.2,  999.0,    1.2,    0.3,   -0.3,   -0.3,   -0.7,   -2.2,   -1.2,   -0.8,    0.3,    0.3,    0.3,   -0.1,    0.0,    0.4,   -0.0,   -0.3,   -0.2,   -0.4,   -0.2,   -0.0,    0.0,    0.4,    0.4,    0.3,    0.0,   -0.2,    0.0,   -0.1,    0.1,   -0.0,   -0.2,   -0.1,    0.1,    0.2,    0.1,    0.0,    0.1,    0.2,    0.2,   -0.2,   -0.0,  999.0,   -0.1,  999.0,  999.0,  999.0,  999.0,  999.0,  999.0,  999.0,  999.0
2016/12/23 02:30,  999.0,   -0.2,    0.2,   -0.1,   -0.0,  999.0,  999.0,  999.0,  999.0,  999.0,   16.8,   16.8,   18.1,   17.0,   14.0,  999.0,   10.2,  999.0,  999.0,    1.8,    0.4,   -0.2,   -0.3,    0.5,   -0.1,   -0.2,   -0.7,   -1.7,   -2.4,  999.0,  999.0,   -0.1,   -0.9,   -1.1,   -0.6,   -0.3,    0.0,    0.0,    0.2,    0.1,   -0.5,   -0.1,   -0.1,    0.1,   -0.3,   -0.1,   -0.1,    0.2,    0.0,    0.7,    0.5,    1.0,    0.4,    0.3,   -0.1,   -0.1,   -0.1,    0.2,   -0.3,    0.0,   -0.0,    0.1,   -0.2,   -0.4,  999.0,   -0.0,   -0.3,   -0.1,   -0.2,    0.0,    0.3,    0.3,   -0.0,  999.0,  999.0,  999.0,  999.0,  999.0,  999.0,  999.0
2016/12/23 02:40,  999.0,  999.0,   -0.0,    0.1,    0.1,    0.0,    0.2,   -0.3,   -0.2,    4.2,    4.9,    4.9,    5.9,    5.6,    3.9,    5.7,    0.1,    0.3,    0.0,    0.1,   -0.2,   -0.2,   -0.8,   -0.9,   -0.4,   -1.1,   -0.5,   -0.6,   -1.1,  999.0,    4.3,   -0.0,   -0.3,   -0.6,   -0.3,   -0.0,   -0.3,    0.1,    0.2,    0.3,   -0.2,   -0.0,   -0.3,    0.2,   -0.1,   -0.1,   -0.1,    0.1,   -0.1,   -0.1,    0.0,    0.5,    0.3,   -0.0,    0.0,   -0.2,    0.0,    0.0,   -0.2,   -0.2,   -0.4,    0.1,   -0.1,    0.0,   -0.1,    0.0,    0.1,    0.0,   -0.2,   -0.1,   -0.1,   -0.0,    0.3,  999.0,  999.0,  999.0,  999.0,  999.0,  999.0,  999.0
2016/12/23 02:50,  999.0,  999.0,   -0.1,    0.1,    0.1,   -0.0,   -0.0,   -0.1,    0.0,    0.0,    0.0,    0.1,    0.0,   -0.0,    0.1,   -0.0,    0.2,    0.0,    0.0,   -0.1,   -0.1,   -0.1,    0.1,   -0.1,   -0.2,   -0.1,   -0.2,   -0.1,   -0.1,    0.1,   -0.1,   -0.5,   -0.2,   -0.1,    0.1,   -0.0,   -0.1,   -0.0,    0.1,    0.0,   -0.1,   -0.2,    0.1,    0.1,    0.1,   -0.0,    0.0,   -0.1,   -0.0,   -0.0,   -0.0,    0.2,    0.0,   -0.2,    0.1,    0.1,    0.1,   -0.0,   -0.1,    0.1,   -0.1,    0.0,    0.1,    0.0,   -0.1,    0.1,    0.0,    0.2,    0.0,   -0.1,    0.1,    0.4,    0.2,  999.0,  999.0,  999.0,  999.0,  999.0,  999.0,  999.0
2016/12/23 03:00,  999.0,  999.0,   -0.1,    0.1,    0.1,    0.0,    0.0,   -0.1,    0.0,    0.0,    0.0,   -0.0,    0.0,   -0.1,   -0.1,   -0.0,   -0.0,    0.2,   -0.0,    0.0,    0.0,   -0.1,    0.0,   -0.0,   -0.1,   -0.0,    0.3,   -0.0,   -0.0,   -0.1,   -0.3,   -0.4,   -0.4,   -0.3,   -0.1,    0.4,    0.2,    0.2,    0.2,   -0.0,   -0.0,    0.0,   -0.1,   -0.1,   -0.0,   -0.0,   -0.1,   -0.1,    0.0,    0.1,   -0.0,    0.1,    0.1,   -0.1,   -0.3,    0.0,    0.1,   -0.0,    0.1,    0.0,    0.1,    0.0,   -0.1,    0.1,    0.0,    0.0,    0.1,    0.1,   -0.2,    0.0,  999.0,   -0.1,  999.0,  999.0,  999.0,  999.0,  999.0,  999.0,  999.0,  999.0
2016/12/23 03:10,  999.0,  999.0,    0.1,   -0.2,   -0.2,    0.9,    0.5,    1.0,   -0.1,    0.1,    0.6,    0.3,   -0.8,   -0.2,   -0.7,   -0.4,  999.0,  999.0,  999.0,    0.2,    0.2,  999.0,  999.0,   10.0,    9.4,    4.0,    7.4,    6.2,    7.0,    8.1,   10.7,   10.1,   11.5,    8.2,    7.3,   10.5,   10.6,   10.4,  999.0,  999.0,  999.0,  999.0,    0.1,  999.0,    0.2,   -0.2,    0.0,   -0.0,   -0.0,   -0.2,   -0.2,   -0.1,   -0.2,   -0.3,   -0.1,    0.0,    0.0,   -0.1,   -0.1,    0.1,   -0.0,    0.0,   -0.1,    0.0,    0.2,    0.0,    0.1,  999.0,   -0.3,  999.0,   -0.1,  999.0,  999.0,  999.0,  999.0,  999.0,  999.0,  999.0,  999.0,  999.0
2016/12/23 03:20,  999.0,  999.0,    0.7,    0.1,  999.0,  999.0,   -1.8,   -1.6,  999.0,  999.0,   -0.8,    4.9,  999.0,   11.0,    4.1,    7.3,    7.7,  999.0,  999.0,   27.6,   29.9,   27.7,   24.8,   26.9,   21.3,   17.1,   16.8,   13.8,   11.9,   11.1,   11.4,   10.7,   15.1,  999.0,  999.0,  999.0,  999.0,  999.0,  999.0,  999.0,  999.0,   -0.5,  999.0,   -0.1,    0.2,   -0.3,    0.0,   -0.4,    0.2,    0.8,    0.5,    0.4,   -0.0,   -0.6,    0.1,    0.0,   -0.1,   -0.1,    0.2,   -0.0,    0.1,   -0.1,   -0.1,   -0.0,   -0.2,   -0.1,    0.0,   -0.0,  999.0,  999.0,  999.0,  999.0,  999.0,  999.0,  999.0,  999.0,  999.0,  999.0,  999.0,  999.0
2016/12/23 03:30,  999.0,  999.0,   -0.1,    0.1,    0.2,    0.1,   -0.1,   -0.2,    0.1,    0.4,    2.4,    4.3,    2.9,   -0.1,   -0.2,   -0.2,   -0.1,    0.0,   -0.0,    0.2,    0.0,    0.2,  999.0,  999.0,   -0.2,   -0.1,   -0.4,   -0.1,   -0.2,   -0.2,   -0.1,    0.1,  999.0,   -0.4,  999.0,   -0.8,  999.0,  999.0,  999.0,    0.0,   -0.1,   -0.1,    0.0,    0.1,   -0.3,   -0.3,   -0.5,   -0.2,    0.3,   -0.2,   -0.1,   -0.2,   -0.8,   -1.3,   -0.4,   -0.2,    0.1,   -0.1,    0.1,    0.1,    0.0,   -0.1,    0.1,    0.1,  999.0,   -0.2,    0.1,  999.0,    0.0,  999.0,    0.3,  999.0,    0.1,   -0.4,  999.0,  999.0,  999.0,  999.0,  999.0,  999.0
2016/12/23 03:40,  999.0,  999.0,   -0.1,   -0.0,    0.1,    0.1,   -0.0,   -0.0,   -0.0,    0.1,    0.0,   -0.2,    0.0,    0.2,   -0.0,    0.0,    0.1,    0.2,    0.1,   -0.0,    0.0,    0.0,   -0.0,   -0.1,    0.2,   -0.0,    0.0,   -0.0,   -0.1,    0.1,    0.1,   -0.1,   -0.3,   -0.2,    0.1,   -0.4,   -0.4,   -0.2,    0.1,    0.3,   -0.8,   -0.0,    0.5,   -0.1,   -0.3,   -1.7,   -1.8,   -0.9,    0.3,  999.0,   -0.4,   -0.5,   -0.2,    0.0,    0.0,   -0.1,    0.0,    0.2,   -0.0,   -0.1,    0.0,   -0.1,    0.1,    0.2,    0.0,    0.1,   -0.1,   -0.2,   -0.0,    0.2,    0.2,   -0.1,    0.0,   -0.1,  999.0,  999.0,  999.0,  999.0,  999.0,  999.0
2016/12/23 03:50,  999.0,  999.0,   -0.1,   -0.0,   -0.0,   -0.2,  999.0,   -0.2,   -0.0,   -0.1,  999.0,    0.0,   -0.0,    0.0,   -0.1,    0.1,  999.0,    0.1,    0.1,    0.0,  999.0,    0.0,   -0.1,    0.1,   -0.0,   -0.0,   -0.1,    0.3,    0.4,    0.3,    0.2,    0.3,    0.0,    0.3,    1.1,  999.0,    0.9,    1.0,    2.0,    1.1,    1.1,    1.6,    0.4,   -0.1,    0.1,    0.2,   -0.9,   -0.3,   -0.4,   -0.1,    0.4,    0.2,   -0.0,   -0.0,   -0.1,    0.1,   -0.0,    0.1,    0.0,   -0.2,   -0.2,    0.1,   -0.1,   -0.1,   -0.3,  999.0,  999.0,  999.0,  999.0,  999.0,  999.0,  999.0,  999.0,  999.0,  999.0,  999.0,  999.0,  999.0,  999.0,  999.0
2016/12/23 04:00,  999.0,  999.0,   -0.1,   -0.1,    0.0,   -0.1,   -0.1,   -0.1,    0.1,   -0.1,   -0.1,   -0.0,   -0.0,    0.1,    0.2,   -0.1,    0.0,   -0.1,   -0.0,   -0.1,   -0.1,   -0.1,   -0.2,    0.1,    0.1,    0.2,    0.2,    0.1,    0.0,    0.1,   -0.1,    0.2,    0.3,  999.0,  999.0,  999.0,  999.0,  999.0,    1.8,    1.6,    0.7,    1.4,    0.0,   -1.1,   -1.0,  999.0,  999.0,    0.3,   -0.1,    0.4,    0.0,    0.0,    0.1,   -0.1,    0.0,    0.0,    0.2,   -0.1,    0.2,   -0.1,   -0.0,   -0.1,    0.1,   -0.0,   -0.1,   -0.2,   -0.2,   -0.2,  999.0,  999.0,  999.0,  999.0,  999.0,  999.0,  999.0,  999.0,  999.0,  999.0,  999.0,  999.0
2016/12/23 04:10,  999.0,  999.0,   -0.1,   -0.1,   -0.1,    0.1,    0.0,   -0.0,    0.0,    0.2,    2.8,    3.8,    3.6,    3.0,    0.1,    0.0,    0.0,    0.1,   -0.1,   -0.1,   -0.1,    0.1,    0.2,   -0.0,    0.1,    0.3,    0.5,    0.5,    0.1,    0.2,   -0.2,    0.3,    0.6,  999.0,  999.0,  999.0,  999.0,  999.0,  999.0,  999.0,  999.0,  999.0,  999.0,  999.0,  999.0,  999.0,    9.4,   -0.2,   -0.3,   -0.2,   -0.1,   -0.1,   -0.1,    0.0,   -0.1,    0.0,    0.0,    0.2,    0.3,   -0.1,    0.0,   -0.0,   -0.2,   -0.2,    0.0,   -0.2,    0.0,   -0.7,   -1.2,  999.0,  999.0,  999.0,  999.0,  999.0,  999.0,  999.0,  999.0,  999.0,  999.0,  999.0
2016/12/23 04:20,  999.0,  999.0,   -0.1,    0.0,   -0.2,    0.3,    0.0,   -0.0,  999.0,   -0.1,    1.9,    1.8,    0.1,   -0.0,   -0.0,    0.0,    0.0,    0.1,    0.1,   -0.1,   -0.0,    0.0,   -0.1,    0.0,   -0.1,   -0.2,    0.2,   -0.1,   -0.3,   -0.1,    0.1,    0.1,   -0.2,   -1.7,    4.3,  999.0,  999.0,  999.0,  999.0,  999.0,  999.0,   -2.1,  999.0,    0.3,    0.5,    0.5,    0.4,   -0.0,   -0.0,    0.1,    0.1,   -0.0,   -0.1,    0.0,    0.0,    0.0,    0.1,    0.1,    0.2,   -0.1,    0.2,   -0.0,   -0.1,   -0.0,   -0.1,    0.0,   -0.0,    0.0,    0.0,    0.1,    0.1,   -0.0,   -0.1,    0.3,  999.0,  999.0,  999.0,  999.0,  999.0,  999.0
2016/12/23 04:30,  999.0,  999.0,   -0.0,  999.0,  999.0,  999.0,    0.6,  999.0,    0.0,    3.4,    7.2,    7.3,    7.4,    4.0,    4.6,    5.3,    0.3,    0.3,    2.9,    2.5,    0.2,    0.2,    4.1,    0.6,    5.9,   -0.0,    4.9,    4.6,  999.0,   10.3,    9.7,   10.5,  999.0,  999.0,  999.0,  999.0,   18.2,  999.0,   18.7,  999.0,  999.0,  999.0,   -0.1,   -0.1,   -0.1,    0.0,   -0.0,   -0.1,   -0.0,    0.0,    0.1,   -0.1,   -0.0,   -0.1,   -0.1,   -0.1,    0.0,   -0.1,    0.0,    0.1,    0.0,   -0.1,   -0.0,   -0.0,   -0.1,   -0.1,   -0.0,   -0.1,    0.1,   -0.0,  999.0,   -0.2,    0.2,  999.0,  999.0,  999.0,  999.0,  999.0,  999.0,  999.0
2016/12/23 04:40,  999.0,  999.0,    0.0,    0.1,    0.2,    0.2,    0.9,    0.9,    0.7,    1.2,    0.9,    0.6,    0.5,    0.7,    0.8,    0.3,    0.5,    0.1,    0.3,    0.2,    0.2,   -0.2,    0.0,   -0.1,   -0.1,   -0.0,    0.4,    0.9,    0.0,    0.7,    0.4,    0.3,   -0.0,   -0.2,    0.8,    1.0,    2.8,    1.8,    1.2,    0.2,   -0.1,   -0.1,    0.0,    0.1,   -0.1,   -0.1,   -0.1,   -0.0,   -0.0,    0.0,    0.0,    0.1,   -0.0,    0.1,    0.0,    0.1,    0.1,   -0.0,    0.0,   -0.2,    0.2,    0.0,   -0.1,    0.0,    0.2,   -0.1,   -0.1,    0.0,    0.1,    0.1,    0.1,   -0.0,    0.0,   -0.0,    0.2,  999.0,  999.0,  999.0,  999.0,  999.0
2016/12/23 04:50,  999.0,  999.0,  999.0,    0.2,    0.4,    1.0,    1.5,    1.0,    0.6,    3.4,    3.5,    3.4,    3.0,    2.7,    2.5,    2.2,    1.9,    1.5,    1.3,    1.0,    0.4,   -0.1,   -0.2,    0.1,    0.1,   -0.2,    0.4,    0.4,    0.2,    0.3,    0.1,    0.1,    0.3,    0.3,    0.0,    0.5,    0.6,    0.3,    0.0,    0.0,    0.0,    0.1,    0.1,    0.1,    0.1,    0.1,    0.1,    0.0,    0.1,    0.1,    0.0,    0.1,   -0.1,   -0.1,    0.0,    0.0,    0.1,   -0.1,    0.1,   -0.0,   -0.1,    0.0,    0.0,   -0.0,   -0.0,   -0.1,    0.0,    0.1,    0.0,    0.0,   -0.1,  999.0,    0.0,    0.1,  999.0,  999.0,  999.0,  999.0,  999.0,  999.0
2016/12/23 05:00,  999.0,    0.0,    0.0,    0.3,    0.4,    0.4,    1.7,    1.7,    1.7,    1.7,    1.3,    1.1,    1.0,    0.9,    0.5,    0.6,    0.2,    0.1,    0.1,   -0.0,   -0.2,    0.1,    0.1,    0.6,   -0.1,    0.1,    0.4,    0.7,    0.3,   -0.3,    0.1,    0.5,    0.1,    0.1,   -0.2,    0.2,   -0.0,    0.1,    0.0,    0.1,   -0.0,    0.1,    0.2,    0.1,   -0.0,   -0.0,   -0.0,   -0.0,    0.0,    0.0,    0.0,    0.0,    0.1,   -0.1,   -0.0,    0.0,    0.0,   -0.0,    0.1,    0.0,    0.1,    0.1,    0.0,   -0.2,   -0.0,   -0.1,   -0.1,   -0.0,   -0.1,   -0.0,   -0.3,    0.2,    0.0,   -0.0,    0.0,  999.0,  999.0,  999.0,  999.0,  999.0
2016/12/23 05:10,  999.0,    0.0,    0.0,    0.2,    0.4,    0.4,    0.9,    0.9,    0.6,    1.0,    1.3,    1.5,    1.1,    0.9,    0.4,    0.3,    0.1,    0.2,    0.1,   -0.1,   -0.2,   -0.0,    0.1,    0.2,    0.0,    0.0,    0.1,    0.2,    0.6,    0.2,    0.3,    0.6,    0.0,    0.5,    0.4,    1.1,    1.5,    1.3,    0.8,    0.5,    0.3,    0.1,   -0.0,    0.0,   -0.0,   -0.1,   -0.1,   -0.0,    0.1,    0.0,    0.0,   -0.0,    0.0,   -0.0,    0.0,   -0.0,   -0.0,   -0.0,   -0.0,   -0.0,   -0.0,   -0.1,   -0.0,    0.0,    0.1,    0.1,    0.0,    0.1,   -0.0,   -0.1,    0.0,   -0.7,   -0.2,    0.2,   -0.2,  999.0,  999.0,  999.0,  999.0,  999.0
2016/12/23 05:20,  999.0,  999.0,    0.3,    0.4,    0.4,    0.7,    1.0,    1.2,    1.2,    1.5,    2.3,    2.4,    1.8,    0.5,    0.3,    0.3,    0.2,    0.2,    0.1,   -0.0,   -0.6,   -0.2,    0.1,    0.1,   -0.0,    0.0,    0.6,    0.0,    0.3,   -0.3,   -0.1,    0.2,   -0.9,    0.2,    0.6,    2.8,    4.3,    4.5,    2.3,    0.8,    0.5,    0.2,    0.1,    0.1,    0.1,   -0.1,   -0.2,    0.0,   -0.0,   -0.1,   -0.2,   -0.1,   -0.0,    0.0,   -0.0,   -0.0,   -0.0,   -0.1,   -0.1,   -0.0,   -0.0,    0.1,    0.1,    0.1,    0.1,    0.0,    0.0,    0.1,    0.0,   -0.1,   -0.1,  999.0,    0.2,  999.0,    0.1,  999.0,  999.0,  999.0,  999.0,  999.0
2016/12/23 05:30,  999.0,  999.0,  999.0,  999.0,    0.7,    0.5,  999.0,    0.3,  999.0,    0.5,    0.5,  999.0,    0.0,    0.1,  999.0,   -0.1,   -0.0,   -0.0,    0.0,   -0.1,   -0.2,   -0.2,   -0.1,    0.0,   -0.2,   -0.1,    0.1,   -0.0,    0.2,    0.4,    0.0,   -0.0,    0.3,    1.0,    0.8,    3.2,    3.5,    3.4,    1.3,    0.2,    0.0,    0.1,    0.0,    0.0,    0.0,   -0.1,   -0.1,   -0.1,    0.0,   -0.1,    0.0,    0.0,    0.1,   -0.0,    0.0,    0.1,    0.1,    0.1,    0.1,    0.1,   -0.1,    0.0,    0.0,   -0.0,   -0.0,   -0.1,    0.0,    0.0,   -0.0,    0.1,    0.2,   -0.4,    0.0,   -0.1,    0.1,  999.0,  999.0,  999.0,  999.0,  999.0
2016/12/23 05:40,  999.0,  999.0,   -0.0,  999.0,  999.0,  999.0,  999.0,  999.0,   -0.0,    0.1,    0.1,    0.2,    0.1,    0.2,    0.0,    0.1,    0.0,    0.1,   -0.1,   -0.0,   -0.2,   -0.2,   -0.1,    0.2,    0.5,   -0.0,    0.0,   -0.1,    0.1,    0.1,   -0.1,    0.2,    0.1,    0.8,    0.6,    3.0,    4.8,    4.8,    2.1,    0.4,    0.1,    0.0,    0.0,    0.0,    0.1,    0.1,    0.1,   -0.0,   -0.0,   -0.0,   -0.0,    0.0,    0.0,    0.0,   -0.0,    0.0,   -0.0,   -0.0,    0.1,    0.1,    0.0,   -0.0,   -0.0,    0.0,   -0.0,    0.0,   -0.0,   -0.0,    0.0,    0.1,   -0.2,   -0.2,    0.1,   -0.2,    0.0,  999.0,  999.0,  999.0,  999.0,  999.0
2016/12/23 05:50,  999.0,  999.0,   -0.1,   -0.1,   -0.0,    0.1,  999.0,    0.2,    0.1,    0.1,    0.1,    0.2,    0.1,    0.2,    0.0,    0.0,    0.0,    0.1,    0.0,    0.0,    0.0,   -0.1,   -0.1,    0.0,    0.1,    0.1,   -0.1,    0.0,   -0.1,   -0.0,   -0.1,   -0.0,    0.7,    0.9,    2.6,    4.4,    6.9,    6.3,    5.0,    2.1,    0.6,    0.1,   -0.0,    0.0,   -0.1,   -0.1,   -0.0,   -0.1,   -0.1,   -0.0,    0.0,    0.1,   -0.0,   -0.0,    0.0,    0.1,    0.0,   -0.0,   -0.0,   -0.0,    0.0,   -0.0,    0.0,    0.0,   -0.0,   -0.0,   -0.0,    0.1,    0.0,   -0.0,    0.1,   -0.2,   -0.1,    0.0,   -0.0,  999.0,  999.0,  999.0,  999.0,  999.0
2016/12/23 06:00,  999.0,  999.0,   -0.0,   -0.1,    0.0,  999.0,   -0.0,   -0.1,   -0.0,  999.0,    0.1,   -0.0,    0.1,    0.0,    0.1,   -0.1,    0.0,    0.0,   -0.1,   -0.1,    0.0,    0.0,    0.1,    0.0,   -0.0,   -0.1,    0.1,    0.0,   -0.0,   -0.0,   -0.1,   -0.2,   -0.0,    0.6,    0.6,    1.7,    1.6,    2.0,    1.8,    0.6,   -0.0,   -0.1,   -0.1,   -0.0,    0.0,    0.0,    0.0,   -0.0,    0.0,   -0.0,   -0.1,   -0.0,   -0.0,    0.1,    0.1,    0.1,    0.0,    0.0,    0.0,   -0.1,   -0.0,   -0.0,    0.0,   -0.0,    0.0,    0.0,    0.1,    0.0,   -0.0,    0.0,  999.0,    0.1,   -0.1,   -0.2,   -0.1,  999.0,  999.0,  999.0,  999.0,  999.0
2016/12/23 06:10,  999.0,  999.0,   -0.2,   -0.1,   -0.0,    0.0,   -0.1,   -0.1,    0.0,    0.0,    0.0,   -0.0,    0.0,   -0.0,    0.0,    0.0,   -0.0,   -0.0,   -0.0,   -0.0,    0.2,    0.1,   -0.0,    0.0,   -0.0,    0.0,    0.0,   -0.2,    0.0,    0.0,    0.0,   -0.1,   -0.0,    0.4,    0.1,    0.1,    0.1,    0.2,    0.0,    0.1,    0.0,    0.0,   -0.0,    0.1,   -0.0,   -0.1,   -0.1,    0.1,   -0.0,   -0.1,   -0.1,   -0.0,    0.0,    0.0,    0.0,   -0.0,    0.0,    0.1,    0.0,    0.0,   -0.0,    0.0,   -0.0,   -0.0,    0.0,   -0.1,   -0.0,   -0.0,   -0.1,   -0.1,  999.0,    0.2,    0.1,    0.1,   -0.0,  999.0,  999.0,  999.0,  999.0,  999.0
2016/12/23 06:20,  999.0,  999.0,   -0.1,   -0.0,  999.0,   -0.1,    0.0,    0.0,   -0.0,    0.1,    0.0,    0.1,   -0.0,    0.1,   -0.0,   -0.1,   -0.1,   -0.1,    0.1,    0.1,    0.1,   -0.0,    0.0,   -0.0,   -0.1,   -0.1,    0.1,    0.1,    0.1,    0.2,    0.2,    0.0,    0.1,    0.2,    0.1,    0.4,    0.6,    0.4,    0.1,    0.2,    0.1,    0.2,    0.1,    0.0,   -0.0,    0.0,   -0.1,   -0.0,   -0.1,    0.1,    0.0,    0.1,   -0.1,    0.0,   -0.1,    0.0,    0.0,    0.1,    0.0,   -0.0,   -0.1,   -0.1,   -0.1,    0.0,   -0.0,   -0.0,    0.0,   -0.0,   -0.1,   -0.1,    0.2,    0.1,  999.0,   -0.1,    0.0,  999.0,  999.0,  999.0,  999.0,  999.0
2016/12/23 06:30,  999.0,    0.1,   -0.4,    0.2,    0.3,   -0.0,    0.1,   -0.4,   -0.0,    0.5,    0.9,    1.2,    0.8,    0.8,    0.4,    0.3,    0.0,    0.3,    0.4,    0.3,    0.3,    0.4,    0.8,    0.5,    0.7,    0.4,    0.3,    0.1,    0.1,    0.4,    0.2,    0.1,    0.3,    0.4,    0.2,   -0.4,   -0.3,    0.1,    0.4,    0.5,   -0.1,    0.0,   -0.0,   -0.2,   -0.1,   -0.1,   -0.0,   -0.1,    0.1,    0.0,    0.1,   -0.0,    0.0,    0.2,    0.1,    0.1,    0.1,    0.1,    0.1,    0.1,   -0.1,   -0.1,    0.0,   -0.0,   -0.0,   -0.0,   -0.1,    0.0,   -0.1,    0.1,    0.0,   -0.2,  999.0,    0.3,  999.0,  999.0,  999.0,  999.0,  999.0,  999.0
2016/12/23 06:40,  999.0,    0.4,    0.3,    0.1,   -0.4,    0.2,    0.1,   -0.1,   -0.1,    0.2,    0.4,   -0.1,    0.2,    0.3,    0.2,    0.4,    0.2,    0.2,    0.1,   -0.0,   -0.0,    0.2,    0.6,    0.4,    0.2,    0.3,    0.8,    0.6,    0.1,   -0.2,   -0.3,   -0.1,   -0.3,   -0.1,    0.1,    0.9,    0.1,   -0.6,   -0.6,   -0.8,   -0.4,   -0.8,   -0.2,   -0.2,   -0.0,    0.1,    0.1,    0.2,   -0.0,   -0.1,   -0.0,   -0.1,    0.0,    0.2,   -0.0,   -0.1,   -0.0,    0.1,    0.1,    0.1,   -0.0,    0.1,   -0.1,   -0.0,    0.0,    0.0,    0.0,   -0.1,   -0.1,    0.0,    0.1,    0.2,   -0.2,    0.2,   -0.2,  999.0,  999.0,  999.0,  999.0,  999.0
2016/12/23 06:50,  999.0,  999.0,    0.1,    0.0,   -0.2,   -0.2,    0.0,    0.0,    0.1,    0.2,    0.3,    0.2,    0.2,    0.1,   -0.0,   -0.1,    0.1,    0.3,   -0.1,   -0.2,   -0.2,   -0.5,   -0.5,    0.1,    0.7,    3.1,    2.3,    1.2,    1.0,    0.0,    0.8,    0.7,    0.6,    0.3,    0.6,    0.4,  999.0,    0.7,    1.7,    1.2,    0.5,    0.5,   -0.0,   -0.0,   -0.1,   -0.1,   -0.2,   -0.0,   -0.1,    0.1,   -0.0,   -0.0,   -0.0,   -0.0,    0.1,   -0.1,    0.0,   -0.2,   -0.1,   -0.1,   -0.0,   -0.1,   -0.1,   -0.0,    0.1,   -0.1,   -0.1,   -0.1,   -0.0,   -0.2,   -0.3,    0.0,    0.1,    0.1,   -0.0,  999.0,  999.0,  999.0,  999.0,  999.0
2016/12/23 07:00,  999.0,    0.1,    0.5,    0.5,    0.3,   -0.1,    0.1,    0.2,   -0.1,    0.1,   -0.1,    0.1,   -0.1,   -0.0,   -0.2,   -0.1,   -0.3,   -0.2,   -0.2,   -0.4,   -0.6,   -0.5,   -0.5,   -0.0,    0.1,    0.3,   -0.1,    1.2,    1.0,    0.5,    0.4,    0.3,    0.7,    0.2,    0.1,    1.2,    0.4,    1.1,    0.8,    0.4,   -0.2,   -0.2,   -0.2,   -0.0,    0.1,    0.0,   -0.1,   -0.0,    0.1,   -0.0,   -0.0,   -0.1,   -0.1,    0.1,   -0.0,   -0.2,   -0.0,    0.1,    0.0,   -0.0,   -0.2,   -0.0,    0.0,    0.1,    0.0,    0.1,   -0.1,   -0.1,   -0.1,   -0.2,    0.0,    0.0,  999.0,  999.0,   -0.1,  999.0,  999.0,  999.0,  999.0,  999.0
2016/12/23 07:10,  999.0,   -0.2,   -0.1,    0.2,    0.1,    0.2,   -0.1,   -0.1,    0.5,    0.2,    0.1,   -0.1,    0.1,    0.2,    0.2,   -0.0,    0.1,   -0.0,   -0.1,   -0.0,   -0.1,   -0.5,   -0.3,   -0.4,   -0.4,   -0.3,   -0.3,    0.5,    0.8,    0.3,    0.2,   -0.1,   -0.1,   -0.2,   -0.2,    0.0,    0.1,   -0.1,    0.1,    0.1,   -0.4,   -0.2,   -0.1,   -0.2,   -0.4,  999.0,   -0.2,    0.1,    0.0,    0.1,    0.1,   -0.1,   -0.1,   -0.1,    0.1,    0.1,   -0.1,    0.0,   -0.1,   -0.1,    0.1,    0.0,    0.2,    0.2,  999.0,   -0.1,   -0.2,    0.1,    0.2,  999.0,  999.0,   -0.2,   -0.2,    0.0,  999.0,   -0.1,  999.0,  999.0,  999.0,  999.0
2016/12/23 07:20,  999.0,    0.4,    0.6,    0.6,   -0.1,    0.7,    0.3,    0.4,   -0.4,    0.1,    0.2,    0.3,   -0.2,    0.8,    0.1,    0.1,   -0.2,   -0.3,   -0.2,   -0.1,   -0.2,   -0.1,    0.0,   -0.2,   -0.6,   -0.8,   -0.3,   -0.3,   -0.1,    0.4,   -0.3,   -0.2,   -0.0,   -0.1,   -0.9,   -1.2,   -0.3,   -0.1,   -0.1,   -0.1,   -0.2,    0.1,    0.2,    0.2,   -0.2,   -0.3,   -0.4,   -0.1,    0.0,   -0.1,   -0.0,   -0.3,   -0.1,    0.2,   -0.0,    0.2,    0.0,    0.0,   -0.1,   -0.0,    0.2,    0.1,   -0.1,   -0.2,  999.0,    0.1,    0.1,    0.0,   -0.1,    0.1,   -0.1,    0.1,    0.1,    0.4,    0.1,  999.0,  999.0,  999.0,  999.0,  999.0
2016/12/23 07:30,  999.0,  999.0,    0.1,   -0.2,   -0.7,   -0.0,   -0.5,   -0.1,    0.1,   -0.1,    0.3,    0.2,    0.1,   -0.1,    0.1,   -0.2,   -0.0,   -0.1,   -0.1,   -1.5,   -2.1,   -0.6,   -2.6,   -4.7,   -8.5,   -5.5,   -5.6,   -4.1,   -3.5,   -1.6,   -1.0,   -0.2,    0.0,    0.4,   -0.3,   -0.4,   -0.6,   -0.5,   -0.8,   -0.0,   -0.3,   -0.3,   -0.1,   -0.2,   -0.1,   -0.2,    0.2,   -0.3,   -0.1,   -0.2,   -0.0,   -0.2,    0.1,    0.1,    0.0,   -0.0,   -0.0,    0.1,   -0.0,   -0.1,   -0.2,   -0.1,    0.2,    0.3,  999.0,    0.0,   -0.0,   -0.1,   -0.0,   -0.2,    0.0,   -0.0,    0.1,   -0.1,    0.0,  999.0,  999.0,  999.0,  999.0,  999.0
2016/12/23 07:40,  999.0,    1.6,    0.3,   -1.1,   -0.4,    0.2,   -0.4,   -0.3,   -0.0,   -0.2,   -0.2,    0.0,    0.1,   -0.0,    0.0,    0.1,    0.0,    0.0,    0.1,    0.1,    0.0,   -0.0,   -0.1,   -0.5,   -0.4,   -0.7,   -1.7,   -1.5,   -0.1,    0.2,    0.1,   -0.0,   -0.3,   -0.5,   -1.0,   -1.8,   -2.1,   -2.1,   -1.0,   -0.1,   -0.4,   -0.1,   -0.1,   -0.1,    0.2,   -0.0,   -0.1,   -0.1,   -0.2,   -0.1,    0.0,    0.1,   -0.0,   -0.1,   -0.1,   -0.2,   -0.1,    0.2,    0.1,    0.2,   -0.0,   -0.1,   -0.1,    0.0,    0.1,   -0.0,    0.1,    0.0,    0.2,    0.1,   -0.0,  999.0,    0.0,  999.0,  999.0,  999.0,  999.0,  999.0,  999.0,  999.0
2016/12/23 07:50,  999.0,    0.1,   -0.1,    0.3,    0.9,    0.5,    0.3,    0.1,   -0.2,    0.1,    0.0,   -0.1,   -0.0,   -0.0,   -0.0,   -0.3,   -0.3,   -0.1,    0.1,   -0.0,   -0.1,   -0.0,   -0.0,   -0.0,   -0.6,   -0.1,   -0.0,    0.4,    0.4,    0.7,   -0.0,   -0.1,   -0.0,    0.1,   -0.2,    0.2,    0.1,    0.1,   -0.1,   -0.1,   -0.4,   -0.2,    0.0,    0.1,   -0.0,    0.0,    0.1,    0.1,   -0.0,    0.1,    0.1,    0.1,    0.1,    0.0,   -0.1,   -0.1,    0.0,   -0.1,   -0.0,   -0.1,   -0.1,   -0.0,    0.0,    0.0,   -0.1,    0.1,    0.0,   -0.0,   -0.1,   -0.1,  999.0,    0.1,    0.0,   -0.0,  999.0,  999.0,  999.0,  999.0,  999.0,  999.0
2016/12/23 08:00,  999.0,    0.1,    0.0,   -0.1,    0.0,   -0.2,   -0.2,   -0.1,    0.0,    0.1,   -0.2,    0.1,   -0.1,   -0.2,   -0.2,   -0.0,    0.1,    0.0,    0.1,    0.0,    0.1,    0.1,   -0.2,   -0.2,   -0.1,    2.0,    2.7,    0.6,   -0.6,   -0.5,    0.5,    0.1,    0.2,    0.5,    0.6,    1.3,    0.4,   -0.1,    0.2,   -0.0,   -0.3,   -0.2,   -0.1,    0.0,   -0.3,   -0.1,   -0.2,    0.1,   -0.1,   -0.1,   -0.0,   -0.0,   -0.1,   -0.2,   -0.1,   -0.0,   -0.1,    0.0,   -0.0,   -0.0,   -0.2,    0.0,    0.0,   -0.0,    0.1,    0.1,    0.1,    0.0,    0.0,   -0.0,  999.0,   -0.1,   -0.1,   -0.0,  999.0,  999.0,  999.0,  999.0,  999.0,  999.0
2016/12/23 08:10,  999.0,  999.0,   -0.0,    0.0,    0.2,  999.0,   -0.2,   -0.0,   -0.0,    0.0,   -0.0,   -0.0,   -0.0,   -0.0,    0.1,    0.2,    0.1,    0.1,    0.1,    0.1,    0.1,    0.0,    0.1,    0.1,    0.3,    0.4,    0.3,    0.3,    0.3,    0.1,    0.6,    0.4,    0.1,   -0.0,    0.0,   -0.0,    0.1,   -0.1,    0.2,    0.1,   -0.0,    0.0,    0.0,    0.1,    0.0,    0.1,    0.1,    0.0,    0.2,    0.2,   -0.0,   -0.1,    0.1,   -0.0,   -0.1,   -0.1,   -0.0,    0.0,    0.0,   -0.1,    0.1,    0.0,   -0.0,   -0.0,   -0.0,    0.0,   -0.0,   -0.0,    0.0,   -0.2,  999.0,    0.0,   -0.0,   -0.1,  999.0,  999.0,  999.0,  999.0,  999.0,  999.0
2016/12/23 08:20,  999.0,  999.0,   -0.3,    0.0,    0.0,   -0.0,   -0.0,   -0.1,   -0.0,    0.0,    0.1,    0.2,    0.1,    0.2,    0.2,    0.3,    0.3,    0.1,    0.1,    0.1,    0.1,   -0.0,    0.1,    0.2,    0.2,   -0.4,   -0.6,    0.1,   -0.1,    0.1,    0.1,    0.1,    0.1,   -0.0,   -0.1,    0.0,    0.2,   -0.1,   -0.1,    0.0,   -0.1,    0.1,    0.1,   -0.0,    0.0,    0.0,    0.0,    0.1,    0.1,    0.1,   -0.1,    0.0,    0.1,   -0.0,   -0.1,   -0.1,   -0.1,   -0.0,    0.1,    0.1,   -0.0,   -0.0,   -0.1,   -0.1,   -0.1,   -0.1,   -0.0,   -0.0,   -0.1,   -0.3,    0.0,    0.1,    0.1,   -0.1,    0.3,  999.0,  999.0,  999.0,  999.0,  999.0
2016/12/23 08:30,  999.0,  999.0,   -0.2,   -0.2,    0.0,  999.0,   -0.2,  999.0,   -0.1,   -0.1,   -0.1,   -0.1,    0.1,    0.2,    0.1,    0.1,    0.1,    0.1,    0.1,    0.1,    0.2,    0.1,    0.0,    0.0,    0.1,    0.1,   -0.6,   -0.1,    0.0,   -0.0,   -0.1,    0.2,    0.1,    0.1,   -0.0,   -0.1,    0.1,    0.1,   -0.0,   -0.1,   -0.2,   -0.2,    0.0,   -0.0,   -0.1,    0.1,    0.1,   -0.0,   -0.1,   -0.0,   -0.1,    0.1,    0.0,   -0.1,   -0.1,   -0.0,    0.1,   -0.0,   -0.0,   -0.1,    0.1,   -0.1,   -0.1,   -0.1,    0.0,   -0.0,   -0.1,    0.0,   -0.0,   -0.1,    0.0,    0.0,    0.0,  999.0,  999.0,  999.0,  999.0,  999.0,  999.0,  999.0
2016/12/23 08:40,  999.0,    0.6,   -0.1,   -0.1,    0.1,   -0.0,    0.3,    0.0,   -0.1,    0.1,    0.1,    0.3,    0.1,    0.2,  999.0,    0.2,    0.3,    0.1,    0.1,    0.0,    0.1,   -0.1,   -0.0,   -0.1,   -0.0,    0.0,    0.1,    0.1,    0.1,   -0.1,    0.0,   -0.1,    0.0,    0.0,   -0.1,   -0.1,    0.2,   -0.1,    0.0,    0.1,   -0.0,    0.0,   -0.1,   -0.0,   -0.1,   -0.1,   -0.0,    0.0,   -0.0,    0.1,   -0.0,    0.0,   -0.0,    0.1,   -0.0,   -0.1,    0.0,   -0.0,    0.0,    0.0,   -0.0,    0.0,    0.1,   -0.0,   -0.0,    0.0,   -0.1,   -0.0,    0.1,   -0.1,   -0.0,    0.1,   -0.1,   -0.2,  999.0,  999.0,  999.0,  999.0,  999.0,  999.0
2016/12/23 08:50,  999.0,  999.0,   -0.0,   -0.2,   -0.1,  999.0,   -0.1,   -0.2,   -0.0,    0.1,   -0.0,    0.0,    0.1,    0.0,    0.1,    0.3,    0.2,    0.1,    0.1,    0.0,    0.1,   -0.0,   -0.0,   -0.2,   -0.2,   -0.1,   -0.0,   -0.1,   -0.1,    0.0,   -0.0,   -0.1,   -0.1,   -0.1,   -0.1,    0.1,   -0.0,    0.1,    0.1,   -0.0,   -0.1,   -0.0,    0.1,    0.0,   -0.0,   -0.1,   -0.1,   -0.1,   -0.1,   -0.0,    0.1,   -0.1,    0.1,    0.1,    0.1,   -0.0,    0.0,   -0.0,    0.0,   -0.1,    0.0,   -0.0,   -0.0,    0.0,    0.0,   -0.0,    0.0,    0.1,    0.1,   -0.2,   -0.0,    0.1,    0.1,    0.1,   -0.2,  999.0,  999.0,  999.0,  999.0,  999.0
2016/12/23 09:00,  999.0,    0.2,   -0.1,    0.0,   -0.0,   -0.1,   -0.0,   -0.1,    0.2,    0.1,    0.1,   -0.1,    0.2,    0.4,    0.7,    0.5,    0.5,    0.4,    0.1,    0.1,    0.1,    0.3,    0.1,    0.0,    0.2,   -0.1,    0.0,    0.0,   -0.1,   -0.4,   -0.2,   -0.0,    0.0,    0.2,   -0.2,    0.1,   -0.1,    0.1,   -0.1,   -0.0,   -0.1,   -0.1,   -0.1,   -0.0,    0.2,    0.1,   -0.0,    0.1,    0.1,    0.0,    0.0,   -0.1,   -0.1,   -0.1,   -0.0,    0.1,    0.0,   -0.0,   -0.0,   -0.0,   -0.0,    0.0,   -0.1,   -0.1,    0.0,    0.0,    0.0,    0.0,   -0.0,    0.1,    0.0,    0.1,    0.1,  999.0,  999.0,  999.0,  999.0,  999.0,  999.0,  999.0
2016/12/23 09:10,  999.0,    0.0,    0.1,    0.0,  999.0,   -0.1,    0.0,   -0.1,   -0.1,    0.0,  999.0,    0.0,   -0.1,   -0.1,   -0.0,    0.1,    0.1,    0.0,    0.1,    0.1,    0.2,    0.5,    0.7,    0.8,    0.2,    0.1,    0.1,   -0.0,    0.1,    0.1,    0.9,    0.2,    0.2,    0.2,    0.1,   -0.1,   -0.1,   -0.1,    0.0,    0.1,   -0.0,   -0.1,   -0.0,   -0.1,   -0.1,    0.1,    0.0,    0.0,    0.1,    0.1,   -0.1,    0.1,    0.0,    0.1,    0.1,   -0.1,   -0.0,   -0.0,    0.1,    0.0,   -0.0,    0.1,    0.0,    0.0,   -0.1,   -0.1,   -0.0,   -0.1,   -0.1,    0.1,  999.0,    0.0,   -0.1,    0.1,  999.0,  999.0,  999.0,  999.0,  999.0,  999.0
2016/12/23 09:20,  999.0,  999.0,    0.1,   -0.1,    0.1,    0.0,   -0.1,   -0.1,   -0.1,   -0.1,    0.0,    0.0,    0.1,   -0.1,    0.0,   -0.0,    0.1,   -0.0,    0.0,    0.2,    0.3,    0.6,    0.6,    0.6,    0.5,    0.2,    0.1,   -0.1,   -0.0,   -0.1,    0.2,    0.6,   -0.3,    0.4,   -0.2,   -0.1,    0.1,    0.3,    0.2,   -0.1,   -0.2,   -0.1,   -0.0,    0.1,    0.0,    0.0,    0.1,    0.0,   -0.1,   -0.0,   -0.1,   -0.1,   -0.1,    0.1,    0.1,    0.0,   -0.0,    0.0,    0.2,    0.1,    0.1,    0.1,    0.1,    0.0,    0.0,    0.0,    0.1,    0.1,    0.0,    0.1,   -0.4,   -0.2,   -0.1,    0.0,    0.2,  999.0,  999.0,  999.0,  999.0,  999.0
2016/12/23 09:30,  999.0,    0.1,   -0.1,   -0.0,   -0.1,   -0.1,   -0.1,   -0.3,   -0.1,   -0.0,    0.1,    0.0,    0.0,   -0.0,   -0.1,   -0.1,    0.0,    0.1,    0.2,    0.2,    0.7,    0.7,    0.8,    1.3,    0.7,    0.9,    0.8,    0.6,    0.3,    0.1,    0.2,    0.5,    0.3,  999.0,  999.0,    0.1,    0.0,   -0.1,   -0.1,   -0.0,   -0.2,   -0.1,    0.0,   -0.1,   -0.1,    0.0,   -0.1,   -0.0,   -0.1,    0.0,    0.0,   -0.0,    0.0,    0.0,    0.1,    0.3,   -0.1,   -0.0,   -0.1,    0.2,   -0.2,   -0.1,    0.1,    0.1,    0.0,    0.1,    0.0,   -0.0,    0.1,    0.1,  999.0,    0.0,   -0.5,  999.0,  999.0,  999.0,  999.0,  999.0,  999.0,  999.0
2016/12/23 09:40,  999.0,    0.3,    0.2,    0.1,    0.0,   -0.0,   -0.1,   -0.1,   -0.1,   -0.0,    0.1,   -0.0,    0.4,    0.1,    0.3,    0.1,    0.2,    0.3,    0.5,    0.5,    1.2,    1.5,    1.8,    1.4,    0.6,    0.8,    0.8,    0.1,    0.1,   -0.0,   -0.0,    0.1,    0.8,    0.2,   -0.8,    0.0,   -0.1,    0.0,    0.1,   -0.0,   -0.1,   -0.0,    0.0,   -0.1,   -0.0,   -0.1,   -0.1,    0.2,   -0.0,   -0.1,   -0.1,   -0.0,   -0.1,    0.1,   -0.1,    0.0,   -0.0,    0.2,  999.0,  999.0,   -0.3,    0.0,   -0.1,    0.2,    0.1,    0.1,   -0.0,    0.0,   -0.1,   -0.2,   -0.1,    0.1,   -0.1,   -0.2,  999.0,  999.0,  999.0,  999.0,  999.0,  999.0
2016/12/23 09:50,  999.0,  999.0,    0.1,   -0.0,   -0.2,    0.1,    0.0,   -0.1,   -0.0,   -0.0,   -0.0,    0.0,   -0.1,   -0.1,    0.1,   -0.0,    0.1,    0.1,    0.3,    0.3,    0.5,    1.1,    2.2,    2.1,    1.3,    1.1,    0.6,    0.2,   -0.0,    0.3,    0.1,    0.0,   -0.1,    0.7,   -1.2,   -0.7,    0.1,    0.0,    0.0,    0.0,   -0.3,   -0.3,   -0.1,   -0.1,   -0.2,   -0.0,    0.0,    0.1,    0.1,    0.1,   -0.0,    0.1,   -0.1,   -0.1,   -0.0,    0.1,   -0.1,   -0.0,   -0.3,   -0.0,   -0.1,    0.1,    0.0,   -0.1,   -0.2,   -0.1,   -0.0,   -0.1,   -0.1,    0.2,   -0.2,   -0.3,    0.0,   -0.1,  999.0,  999.0,  999.0,  999.0,  999.0,  999.0
2016/12/23 10:00,  999.0,  999.0,   -0.1,    0.2,    0.1,    0.1,    0.2,    0.1,    0.1,    0.1,    0.0,   -0.1,    0.1,    0.1,    0.1,    0.0,    0.1,   -0.0,    0.0,   -0.1,    0.1,    0.3,    1.2,    1.5,    1.2,    1.2,    1.6,    0.8,    0.8,    0.2,    0.2,    0.2,    0.2,    0.4,   -0.5,    0.1,    0.2,    0.0,    0.3,    0.2,   -0.1,   -0.1,   -0.1,   -0.0,    0.0,   -0.0,    0.0,    0.0,   -0.0,   -0.0,   -0.1,   -0.2,    0.1,   -0.0,   -0.1,   -0.0,   -0.0,   -0.1,    0.0,    0.1,    0.1,    0.0,    0.1,    0.0,   -0.1,   -0.0,   -0.0,    0.1,    0.0,    0.3,    0.1,   -0.0,    0.0,   -0.0,   -0.2,  999.0,  999.0,  999.0,  999.0,  999.0
2016/12/23 10:10,  999.0,  999.0,   -0.1,    0.0,   -0.0,   -0.0,   -0.1,   -0.1,   -0.0,   -0.1,    0.0,    0.1,   -0.0,    0.0,    0.0,    0.0,   -0.0,    0.1,    0.1,    0.1,   -0.1,    0.4,    0.5,    0.2,    0.1,    0.4,    0.5,    0.7,    0.4,    0.4,    0.3,    0.1,    0.1,    0.2,    0.0,   -0.1,    0.3,    0.8,    0.1,    0.1,   -0.1,   -0.2,   -0.1,    0.0,    0.1,   -0.0,   -0.0,   -0.2,   -0.0,   -0.1,    0.0,   -0.0,   -0.0,   -0.0,    0.1,    0.1,   -0.0,    0.0,    0.1,    0.2,    0.0,   -0.0,   -0.0,   -0.0,    0.0,    0.1,   -0.1,   -0.2,   -0.0,   -0.2,    0.3,   -0.0,    0.1,    0.1,   -0.1,  999.0,  999.0,  999.0,  999.0,  999.0
2016/12/23 10:20,  999.0,    0.3,    0.1,   -0.0,   -0.1,    0.0,    0.1,   -0.0,   -0.1,   -0.1,   -0.3,   -0.2,   -0.2,   -0.0,   -0.0,   -0.1,    0.2,    0.1,    0.2,    0.0,    0.7,    0.7,    0.9,    1.0,    1.0,    1.0,    0.1,    0.3,    0.6,    0.1,    0.3,    0.4,    0.3,    0.1,    0.2,    0.1,    0.5,    0.9,    0.6,    0.2,   -0.3,   -0.2,    0.1,   -0.1,   -0.0,   -0.1,   -0.1,    0.1,    0.0,    0.2,   -0.1,   -0.0,   -0.0,    0.1,    0.0,    0.0,    0.0,   -0.0,    0.0,   -0.0,    0.3,    0.1,    0.0,    0.0,    0.0,   -0.2,   -0.0,    0.0,   -0.0,    0.1,   -0.1,   -0.1,    0.1,   -0.2,   -0.2,  999.0,  999.0,  999.0,  999.0,  999.0
2016/12/23 10:30,  999.0,    0.3,    0.1,    0.1,   -0.0,    0.0,    0.0,   -0.0,    0.1,    0.1,    0.2,   -0.0,    0.1,    0.2,    0.0,   -0.0,    0.0,   -0.0,   -0.0,   -0.1,    0.1,    0.2,    0.9,    0.7,    0.9,    2.2,  999.0,    2.1,  999.0,  999.0,    1.9,    1.3,    1.8,    0.2,    0.1,    0.2,    0.8,   -0.1,    1.1,    0.3,   -0.1,   -0.2,   -0.1,   -0.1,    0.0,   -0.0,   -0.0,    0.1,    0.0,    0.2,    0.1,    0.0,   -0.1,    0.0,    0.0,    0.0,   -0.1,   -0.1,   -0.1,    0.1,   -0.0,   -0.1,    0.0,    0.1,    0.1,   -0.0,   -0.1,    0.0,    0.1,    0.1,   -0.1,    0.2,    0.1,  999.0,   -0.5,   -0.2,  999.0,  999.0,  999.0,  999.0
2016/12/23 10:40,  999.0,    0.1,    0.1,   -0.1,    0.0,   -0.0,    0.1,    0.0,   -0.1,   -0.1,    0.0,    0.1,   -0.0,    0.1,    0.0,    0.0,  999.0,   -0.0,    0.2,    0.0,    0.3,    0.3,    0.2,    0.1,    0.1,    0.2,    0.2,    0.0,   -0.1,    0.2,    0.7,    0.6,    0.3,    0.4,    0.2,    0.4,    1.1,    2.1,    1.4,    0.6,    0.1,   -0.1,    0.0,   -0.1,    0.0,    0.0,    0.1,    0.1,   -0.0,   -0.0,    0.1,    0.1,   -0.1,   -0.0,    0.1,    0.0,   -0.1,    0.0,   -0.1,   -0.0,    0.1,    0.0,    0.1,   -0.4,  999.0,   -0.1,   -0.0,   -0.0,   -0.0,    0.1,   -0.3,    0.1,   -0.3,   -0.3,    0.1,  999.0,  999.0,  999.0,  999.0,  999.0
2016/12/23 10:50,  999.0,  999.0,   -0.0,    0.0,    0.1,   -0.2,   -0.3,    0.2,    0.1,    0.0,    0.0,    0.0,   -0.0,    0.1,    0.2,    0.1,    0.1,   -0.1,    0.0,    0.0,    0.0,    0.0,    0.2,   -0.2,    0.3,    0.3,    0.5,    0.3,    0.4,    0.6,    0.4,    0.3,    0.3,    0.4,    0.2,    0.2,    0.5,    0.5,    0.6,    0.2,   -0.1,   -0.2,   -0.2,    0.0,   -0.0,    0.0,    0.1,   -0.0,   -0.1,   -0.1,    0.0,   -0.0,    0.0,    0.1,   -0.0,   -0.0,   -0.0,   -0.0,   -0.0,    0.1,   -0.0,   -0.1,   -0.1,   -0.1,   -0.0,    0.0,    0.0,   -0.0,   -0.1,    0.0,    0.1,   -0.0,    0.4,    0.2,    0.2,  999.0,  999.0,  999.0,  999.0,  999.0
2016/12/23 11:00,  999.0,   -0.0,    0.1,    0.0,    0.1,   -0.2,   -0.0,   -0.1,   -0.1,    0.2,    0.2,    0.0,    0.3,    0.1,   -0.1,    0.1,   -0.0,    0.1,    0.0,    0.0,   -0.1,    0.1,    0.5,    0.4,    0.2,    0.5,    0.2,    0.4,    0.1,    0.3,    0.1,    0.1,    0.1,   -0.3,   -0.0,   -0.1,    0.6,    0.4,    0.1,   -0.1,   -0.3,   -0.2,   -0.1,   -0.0,   -0.1,   -0.1,    0.2,    0.1,    0.1,    0.1,   -0.1,   -0.2,    0.1,    0.0,   -0.0,   -0.0,   -0.0,    0.0,    0.0,    0.0,    0.1,   -0.1,   -0.1,   -0.0,   -0.0,    0.1,   -0.1,    0.0,   -0.0,   -0.0,   -0.2,   -0.2,   -0.3,  999.0,    0.1,  999.0,  999.0,  999.0,  999.0,  999.0
2016/12/23 11:10,  999.0,  999.0,   -0.0,   -0.0,  999.0,  999.0,   -0.0,   -0.0,   -0.1,   -0.0,   -0.2,   -0.1,   -0.1,   -0.1,   -0.0,    0.0,    0.0,    0.1,   -0.0,   -0.0,    0.1,    0.1,    0.2,    0.0,    0.2,    0.3,    0.5,    0.4,    0.3,    0.4,    0.1,    0.5,    0.3,    0.3,    0.6,    1.1,    1.1,    0.5,    0.2,    0.1,   -0.2,   -0.3,   -0.1,   -0.1,    0.1,   -0.0,    0.0,    0.1,   -0.0,    0.1,    0.2,    0.2,    0.1,   -0.0,   -0.2,   -0.0,   -0.1,   -0.1,    0.1,    0.1,   -0.0,   -0.0,   -0.0,    0.1,    0.0,   -0.1,   -0.1,   -0.1,   -0.0,    0.1,    0.0,   -0.2,    0.0,   -0.1,    0.2,  999.0,  999.0,  999.0,  999.0,  999.0
2016/12/23 11:20,  999.0,    0.0,   -0.0,   -0.0,   -0.4,  999.0,    0.2,  999.0,  999.0,    0.1,    0.0,   -0.0,    0.0,    0.0,    0.1,    0.1,    0.1,    0.1,   -0.0,   -0.0,    0.1,    0.0,    0.3,    0.6,    0.9,    0.9,    1.0,    0.7,    0.6,    0.7,    1.2,    1.0,    0.5,    0.1,    0.0,    0.2,    1.0,    0.1,    0.1,   -0.0,   -0.1,    0.1,    0.0,    0.0,    0.0,    0.1,    0.1,    0.1,    0.0,   -0.0,   -0.1,   -0.1,   -0.0,   -0.0,    0.0,    0.0,   -0.0,   -0.0,   -0.1,    0.1,    0.1,   -0.0,   -0.0,   -0.0,    0.1,    0.0,    0.0,   -0.1,   -0.0,  999.0,   -0.0,    0.1,    0.2,   -0.2,    0.1,    0.3,  999.0,  999.0,  999.0,  999.0
2016/12/23 11:30,  999.0,  999.0,    0.3,   -0.2,   -0.0,   -0.0,    0.0,   -0.0,    0.0,   -0.0,    0.1,    0.1,    0.2,    0.0,   -0.1,   -0.1,    0.1,   -0.0,    0.0,    0.1,    0.1,   -0.0,    0.2,   -0.0,    0.2,    0.4,    0.6,    0.9,    1.0,    1.3,    0.9,    0.8,    0.5,    0.3,    0.1,    0.2,    0.6,    1.5,    0.8,    0.2,   -0.2,   -0.2,    0.1,    0.1,   -0.0,    0.1,   -0.0,   -0.0,    0.1,   -0.0,   -0.1,    0.0,    0.1,   -0.1,   -0.0,   -0.0,    0.0,    0.1,   -0.0,    0.1,    0.1,   -0.0,    0.0,   -0.1,    0.0,    0.0,    0.0,   -0.0,   -0.1,   -0.0,    0.3,   -0.0,   -0.0,   -0.2,   -0.1,    0.4,  999.0,  999.0,  999.0,    0.3
2016/12/23 11:40,  999.0,   -0.3,   -0.1,    0.1,   -0.0,   -0.0,   -0.3,   -0.1,   -0.0,   -0.0,    0.1,    0.0,    0.1,    0.1,   -0.0,    0.0,    0.0,   -0.1,    0.0,   -0.0,    0.1,    0.1,    0.1,    0.2,    0.3,    0.1,    0.4,    0.4,    0.4,    0.3,    0.4,    0.6,    0.3,    0.2,    0.6,    0.6,    1.1,    3.4,    1.9,    1.0,    0.2,   -0.0,   -0.0,   -0.1,    0.0,    0.0,    0.0,    0.1,    0.1,    0.1,   -0.0,    0.0,    0.1,    0.0,    0.0,   -0.1,   -0.0,   -0.1,   -0.0,    0.0,   -0.1,   -0.1,    0.0,   -0.1,    0.0,   -0.1,   -0.0,   -0.0,   -0.1,   -0.1,   -0.0,    0.1,   -0.1,    0.2,   -0.1,  999.0,  999.0,  999.0,  999.0,   -0.1
2016/12/23 11:50,  999.0,    0.1,   -0.2,   -0.2,    0.1,    0.0,  999.0,   -0.1,   -0.1,   -0.0,   -0.3,   -0.1,    0.1,    0.1,    0.1,    0.1,    0.1,    0.0,    0.0,    0.2,    0.1,    0.2,   -0.0,   -0.3,   -0.1,   -0.0,   -0.2,   -0.0,    0.1,    0.2,    0.2,    0.2,    0.4,    0.1,    0.1,    0.1,    0.0,    0.0,   -0.1,    0.3,    0.1,    0.0,    0.1,    0.0,    0.0,   -0.2,   -0.1,    0.2,    0.1,   -0.1,   -0.0,   -0.1,   -0.1,   -0.1,   -0.2,   -0.0,    0.0,   -0.0,    0.0,   -0.0,   -0.1,    0.1,    0.0,   -0.0,   -0.1,    0.1,   -0.1,   -0.1,   -0.0,   -0.1,   -0.1,    0.1,    0.2,    0.3,  999.0,  999.0,  999.0,  999.0,  999.0,  999.0
2016/12/23 12:00,  999.0,  999.0,   -0.0,   -0.0,    0.0,   -0.0,   -0.1,  999.0,  999.0,   -0.1,    0.1,    0.3,    0.2,    0.2,    0.1,   -0.0,   -0.1,   -0.1,    0.2,   -0.0,    0.1,   -0.1,    0.1,    0.1,    0.1,    0.1,    0.1,    0.1,    0.3,    0.2,    0.6,    0.2,    0.2,    0.0,    0.2,    0.1,   -0.1,   -0.1,   -0.0,    0.0,   -0.1,    0.0,    0.0,   -0.0,    0.0,    0.1,    0.1,   -0.0,    0.0,    0.1,    0.0,    0.0,   -0.0,   -0.1,   -0.0,    0.0,    0.0,    0.1,   -0.0,    0.1,    0.1,    0.0,   -0.0,   -0.1,    0.1,    0.1,    0.1,    0.0,   -0.1,   -0.2,    0.2,   -0.2,    0.2,    0.1,   -0.2,  999.0,  999.0,  999.0,  999.0,  999.0
2016/12/23 12:10,  999.0,  999.0,   -0.0,    0.1,   -0.0,    0.0,   -0.1,   -0.1,    0.1,    0.1,   -0.1,    0.0,    0.1,   -0.1,    0.1,   -0.0,    0.0,    0.1,    0.1,   -0.0,    0.0,    0.0,    0.1,   -0.0,   -0.1,    0.2,    0.0,   -0.1,   -0.1,    0.1,   -0.0,    0.1,    0.2,    0.1,    0.0,    0.0,    0.2,    0.1,   -0.1,   -0.2,   -0.2,   -0.0,    0.0,   -0.1,   -0.0,    0.0,   -0.0,    0.0,   -0.1,   -0.0,   -0.2,   -0.0,   -0.1,   -0.1,   -0.0,   -0.1,   -0.1,   -0.1,    0.1,    0.0,    0.0,   -0.1,   -0.1,   -0.1,   -0.1,   -0.0,   -0.1,    0.1,   -0.0,   -0.0,  999.0,   -0.2,   -0.1,   -0.3,   -0.3,  999.0,  999.0,  999.0,  999.0,  999.0
2016/12/23 12:20,  999.0,    0.2,  999.0,   -0.2,    0.0,   -0.0,   -0.1,   -0.1,   -0.0,    0.1,    0.2,    0.1,    0.2,    0.2,    0.2,    0.1,    0.2,    0.1,   -0.0,   -0.0,   -0.0,    0.1,   -0.1,   -0.0,   -0.0,   -0.1,   -0.0,   -0.2,    0.2,   -0.1,    0.2,    0.1,    0.2,    0.2,   -0.2,    0.0,    0.1,    0.1,   -0.1,   -0.1,   -0.2,   -0.1,    0.1,   -0.1,   -0.1,   -0.0,    0.0,    0.0,   -0.0,    0.1,    0.1,   -0.0,   -0.1,    0.0,   -0.0,   -0.1,    0.0,   -0.0,   -0.1,    0.1,    0.1,    0.0,   -0.0,    0.1,    0.1,    0.0,   -0.1,   -0.1,   -0.1,    0.4,   -0.0,    0.2,    0.2,   -0.3,   -0.1,  999.0,  999.0,  999.0,  999.0,  999.0
2016/12/23 12:30,  999.0,  999.0,   -0.0,   -0.2,    0.1,    0.1,    0.0,    0.1,    0.0,   -0.0,    0.1,    0.0,    0.1,    0.1,   -0.0,   -0.0,   -0.1,   -0.1,   -0.1,   -0.1,   -0.1,   -0.0,   -0.1,   -0.1,   -0.0,    0.2,    0.4,    0.1,   -0.0,    0.2,    0.3,    0.2,    0.0,    0.1,    0.2,    0.1,   -0.1,   -0.0,   -0.1,   -0.1,   -0.2,   -0.2,   -0.1,   -0.1,   -0.0,  999.0,    0.2,    0.0,    0.0,   -0.1,   -0.0,   -0.1,   -0.2,    0.0,   -0.0,    0.0,   -0.0,    0.2,   -0.0,    0.1,    0.0,    0.0,   -0.1,    0.1,    0.3,    0.1,    0.0,    0.0,   -0.0,   -0.2,    0.1,   -0.2,   -0.1,    0.2,   -0.1,  999.0,  999.0,  999.0,  999.0,  999.0
2016/12/23 12:40,  999.0,  999.0,  999.0,   -0.0,    0.0,    0.1,    0.1,   -0.0,    0.0,    0.0,   -0.0,   -0.1,    0.0,   -0.0,    0.0,    0.1,    0.0,   -0.0,    0.0,    0.1,   -0.0,    0.0,    0.1,    0.0,   -0.0,    0.0,    0.1,    0.1,    0.0,    0.2,    0.2,    0.2,    0.2,    0.2,    0.2,   -0.2,   -0.0,    0.0,   -0.0,   -0.0,   -0.1,   -0.0,   -0.0,   -0.1,    0.0,    0.1,   -0.1,   -0.0,    0.0,    0.0,   -0.1,   -0.0,   -0.0,    0.1,    0.0,   -0.0,   -0.0,   -0.0,    0.0,   -0.0,   -0.0,   -0.0,   -0.1,    0.0,   -0.0,    0.1,   -0.1,   -0.0,    0.1,    0.0,   -0.5,  999.0,   -0.0,    0.0,   -0.1,  999.0,  999.0,  999.0,  999.0,  999.0
2016/12/23 12:50,  999.0,  999.0,   -0.1,    0.0,   -0.0,   -0.1,    0.0,    0.1,   -0.0,    0.0,    0.1,    0.0,   -0.0,   -0.1,   -0.0,    0.0,    0.1,    0.0,    0.1,    0.1,   -0.0,    0.1,    0.1,   -0.1,   -0.0,    0.1,    0.1,   -0.1,    0.1,   -0.0,   -0.0,    0.2,    0.1,    0.0,   -0.1,    0.0,    0.2,    0.1,    0.1,    0.1,   -0.1,   -0.1,   -0.2,    0.0,    0.0,   -0.1,   -0.0,    0.1,   -0.1,    0.1,   -0.0,    0.0,    0.1,   -0.1,    0.0,   -0.0,    0.0,    0.1,    0.0,   -0.2,   -0.1,   -0.0,    0.1,    0.0,   -0.0,    0.0,   -0.0,    0.0,    0.1,    0.0,    0.1,   -0.1,    0.3,   -0.3,    0.2,  999.0,  999.0,  999.0,  999.0,  999.0
2016/12/23 13:00,  999.0,  999.0,  999.0,    0.0,   -0.1,   -0.0,    0.0,   -0.0,    0.0,    0.1,    0.0,    0.1,    0.0,    0.0,    0.0,   -0.1,    0.1,   -0.0,    0.0,    0.0,    0.0,    0.2,    0.3,    0.2,    0.1,    0.3,    0.1,    0.3,    0.1,    0.1,    0.3,    0.1,   -0.0,    0.0,    0.1,    0.2,    0.2,    0.2,    0.1,    0.1,   -0.1,   -0.1,    0.0,   -0.0,   -0.0,   -0.1,   -0.0,   -0.0,   -0.1,    0.0,    0.0,   -0.0,   -0.1,   -0.1,    0.1,   -0.0,   -0.0,   -0.1,   -0.1,   -0.1,    0.1,   -0.0,    0.0,    0.1,    0.1,    0.0,   -0.0,   -0.0,   -0.1,    0.1,    0.1,   -0.2,   -0.1,   -0.1,    0.3,  999.0,  999.0,  999.0,  999.0,  999.0
2016/12/23 13:10,  999.0,    0.2,   -0.0,    0.1,    0.1,    0.0,   -0.2,    0.1,   -0.0,    0.1,    0.1,    0.1,    0.1,    0.1,   -0.0,   -0.1,    0.0,   -0.0,    0.2,    0.2,    0.3,    0.2,    0.4,    0.3,    0.4,    0.5,    1.1,    1.7,    0.7,    0.9,    0.1,    0.0,    0.0,    0.2,    0.4,    0.5,    0.3,    0.2,    0.1,    0.0,   -0.4,   -0.1,   -0.1,   -0.1,    0.0,   -0.0,    0.0,    0.1,    0.1,   -0.0,    0.0,   -0.0,   -0.0,   -0.1,   -0.2,    0.0,   -0.1,   -0.0,   -0.0,    0.1,    0.1,   -0.0,    0.1,    0.0,   -0.2,   -0.0,    0.0,   -0.0,   -0.0,    0.0,   -0.1,   -0.1,   -0.1,    0.3,   -0.2,  999.0,  999.0,  999.0,  999.0,  999.0
2016/12/23 13:20,  999.0,    0.0,    0.0,   -0.1,    0.0,    0.1,    0.0,    0.2,   -0.0,   -0.2,    0.0,    0.1,    0.1,   -0.1,    0.1,    0.1,    0.0,   -0.1,   -0.1,    0.2,    0.1,    0.1,   -0.1,   -0.1,    0.1,   -0.0,    0.1,    0.4,    0.3,    0.2,    0.1,    0.1,    0.0,    0.3,    0.7,    1.2,    0.7,    0.4,    0.2,    0.1,   -0.1,   -0.0,   -0.1,   -0.1,    0.0,   -0.2,   -0.1,   -0.1,   -0.1,    0.0,   -0.1,   -0.2,   -0.1,   -0.2,   -0.0,   -0.0,    0.0,    0.2,    0.0,    0.1,    0.1,    0.1,    0.1,    0.2,   -0.2,    0.1,    0.0,    0.0,    0.2,    0.3,    0.0,   -0.5,    0.1,  999.0,    0.2,  999.0,  999.0,  999.0,  999.0,  999.0
2016/12/23 13:30,  999.0,  999.0,   -0.1,   -0.1,   -0.1,    0.1,    0.1,    0.1,    0.2,    0.1,    0.1,    0.1,    0.1,  999.0,    0.1,    0.1,    0.0,    0.0,    0.1,    0.2,    0.1,    0.2,    0.3,   -0.1,   -0.1,   -0.0,    0.0,    0.1,   -0.1,    0.0,    0.1,   -0.1,   -0.0,    0.1,   -0.2,   -0.2,   -0.1,    0.0,   -0.2,   -0.1,   -0.0,   -0.1,    0.1,    0.1,    0.0,    0.0,   -0.1,   -0.1,    0.1,    0.0,   -0.0,    0.1,   -0.1,    0.1,   -0.1,   -0.1,   -0.1,   -0.0,   -0.2,    0.0,   -0.1,   -0.1,   -0.2,   -0.1,    0.0,    0.0,   -0.0,   -0.1,    0.0,    0.3,   -0.2,   -0.1,   -0.1,   -0.1,   -0.0,    0.1,  999.0,  999.0,  999.0,  999.0
2016/12/23 13:40,  999.0,  999.0,   -0.3,   -0.0,    0.0,    0.1,   -0.1,   -0.1,    0.0,    0.0,    0.2,    0.0,   -0.0,   -0.1,    0.0,   -0.1,    0.0,   -0.0,    0.1,   -0.0,    0.0,    0.1,   -0.1,    0.1,    0.0,    0.0,   -0.1,   -0.2,   -0.1,    0.1,   -0.0,   -0.0,    0.0,   -0.0,   -0.0,   -0.2,   -0.1,    0.1,   -0.1,   -0.1,   -0.1,   -0.1,   -0.0,    0.0,    0.1,    0.0,    0.0,   -0.1,    0.1,    0.1,    0.0,    0.0,   -0.0,   -0.0,    0.1,   -0.0,    0.1,   -0.0,   -0.1,   -0.1,    0.0,    0.0,    0.1,    0.0,    0.1,   -0.0,    0.0,   -0.1,   -0.0,   -0.2,    0.2,    0.0,   -0.2,   -0.1,    0.4,  999.0,  999.0,  999.0,  999.0,  999.0
2016/12/23 13:50,  999.0,  999.0,  999.0,    0.0,   -0.1,   -0.1,   -0.1,   -0.0,   -0.0,   -0.1,   -0.1,   -0.1,    0.0,   -0.1,   -0.0,    0.0,   -0.1,    0.0,   -0.1,    0.1,    0.0,    0.0,   -0.1,   -0.1,   -0.1,    0.1,   -0.2,    0.0,    0.1,   -0.1,   -0.1,    0.1,   -0.1,   -0.0,    0.0,   -0.0,   -0.1,   -0.0,   -0.0,    0.1,    0.1,    0.1,    0.0,   -0.0,   -0.1,   -0.0,   -0.0,   -0.1,   -0.1,    0.0,   -0.0,    0.0,    0.1,   -0.0,    0.0,   -0.1,   -0.2,   -0.0,    0.0,   -0.1,   -0.0,   -0.1,   -0.0,    0.0,    0.0,    0.0,   -0.1,   -0.1,    0.1,   -0.2,    0.1,   -0.2,    0.2,   -0.1,    0.0,  999.0,  999.0,  999.0,  999.0,  999.0
2016/12/23 14:00,  999.0,  999.0,   -0.1,   -0.1,   -0.1,   -0.1,   -0.2,    0.1,    0.0,   -0.0,    0.1,    0.2,    0.0,   -0.0,    0.0,   -0.2,   -0.2,   -0.0,   -0.3,   -0.0,    0.1,    0.3,   -0.2,   -0.2,    0.1,   -0.0,   -0.3,   -0.1,   -0.1,   -0.8,   -0.1,   -0.1,    0.0,   -0.0,   -0.0,   -0.1,   -0.2,   -0.0,   -0.0,    0.0,   -0.2,   -0.1,    0.0,   -0.1,   -0.1,   -0.1,    0.2,    0.2,   -0.0,    0.2,    0.1,    0.0,    0.0,   -0.0,   -0.2,   -0.2,   -0.1,    0.1,   -0.1,    0.0,    0.0,    0.0,   -0.0,   -0.0,    0.1,    0.0,    0.0,    0.0,    0.0,    0.0,  999.0,  999.0,    0.0,   -0.1,   -0.0,  999.0,  999.0,  999.0,  999.0,  999.0
2016/12/23 14:10,  999.0,  999.0,   -0.0,    0.0,   -0.2,   -0.1,   -0.2,    0.1,   -0.1,   -0.1,   -0.3,   -0.1,   -0.0,   -0.1,   -0.1,    0.2,    0.1,   -0.0,    0.1,    0.4,    0.3,    0.1,    0.3,    0.1,   -0.3,    0.0,    0.1,   -0.0,   -0.0,   -0.2,    0.1,   -0.0,    0.1,   -0.0,    0.1,    0.1,   -0.1,    0.1,    0.0,    0.0,   -0.1,   -0.0,    0.1,    0.1,   -0.0,   -0.1,    0.2,   -0.1,    0.1,    0.0,   -0.1,    0.1,    0.0,   -0.0,   -0.0,    0.0,   -0.0,    0.0,    0.0,    0.0,   -0.0,    0.0,   -0.2,   -0.1,   -0.1,    0.0,    0.0,   -0.1,    0.0,    0.1,   -0.1,   -0.0,   -0.2,    0.1,  999.0,  999.0,  999.0,  999.0,  999.0,  999.0
2016/12/23 14:20,  999.0,    0.1,    0.0,    0.3,    0.1,    0.3,    0.3,    0.0,    0.4,    0.2,   -0.1,   -0.4,    0.0,   -0.0,   -0.1,   -0.2,    0.2,    0.1,    0.0,    0.0,    0.1,   -0.1,   -0.2,   -0.2,   -0.2,   -0.2,   -0.3,   -0.5,   -0.2,   -0.2,   -0.1,    0.1,   -0.1,   -0.0,    0.1,    0.0,   -0.1,   -0.2,   -0.0,    0.1,   -0.4,   -0.4,    0.1,   -0.0,   -0.0,   -0.1,   -0.1,   -0.1,    0.0,   -0.1,    0.1,   -0.1,   -0.1,   -0.0,    0.1,   -0.1,    0.0,   -0.1,   -0.1,    0.1,   -0.1,    0.1,   -0.0,   -0.0,    0.2,    0.0,   -0.0,    0.0,   -0.0,    0.1,   -0.0,  999.0,    0.3,  999.0,   -0.1,  999.0,  999.0,  999.0,  999.0,  999.0
2016/12/23 14:30,  999.0,   -0.1,    0.3,    0.5,    0.1,    0.2,    0.2,    0.1,    0.3,    0.3,    0.2,    0.1,   -0.0,   -0.1,   -0.0,   -0.3,   -0.2,   -0.1,    0.0,    0.1,    0.0,    0.1,    0.1,   -0.3,   -0.3,   -0.9,   -0.7,   -0.5,    0.1,   -0.1,   -0.3,   -0.3,   -0.2,    0.2,   -0.2,    0.0,    0.1,   -0.2,   -0.0,   -0.0,   -0.3,   -0.2,   -0.2,   -0.1,    0.0,   -0.1,   -0.3,   -0.1,   -0.1,   -0.1,    0.2,    0.2,   -0.2,   -0.1,    0.1,    0.0,    0.1,    0.0,   -0.0,    0.1,    0.1,    0.2,    0.0,    0.1,    0.1,    0.1,    0.0,    0.0,   -0.0,   -0.1,   -0.1,   -0.0,   -0.1,   -0.2,  999.0,  999.0,  999.0,  999.0,  999.0,  999.0
2016/12/23 14:40,  999.0,    0.2,   -0.3,   -0.0,   -0.0,    0.2,    0.3,    0.4,    0.1,   -0.3,   -0.1,    0.0,    0.0,   -0.1,    0.1,    0.1,   -0.1,   -0.1,    0.1,    0.1,    0.0,    0.1,   -0.3,   -0.2,   -0.3,   -0.5,   -0.8,   -1.2,   -1.0,   -0.4,   -0.2,   -0.6,   -0.2,   -0.0,   -0.1,   -0.1,    0.0,    0.0,    0.0,    0.1,   -0.2,   -0.1,    0.2,    0.1,   -0.1,   -0.1,   -0.2,    0.0,    0.1,    0.0,   -0.1,    0.1,   -0.1,    0.1,   -0.1,    0.1,   -0.1,    0.2,   -0.1,    0.1,    0.0,   -0.1,    0.1,   -0.1,    0.0,    0.1,    0.0,   -0.1,   -0.1,   -0.0,   -0.0,    0.1,   -0.2,    0.2,   -0.1,  999.0,  999.0,  999.0,  999.0,  999.0
2016/12/23 14:50,  999.0,    0.2,    0.0,   -0.1,    0.1,    0.4,   -0.4,   -0.5,   -0.0,    0.6,    0.6,    0.2,   -0.0,    0.2,    0.0,    0.1,    0.2,  999.0,   -0.2,    0.3,   -0.1,   -0.6,   -1.1,  999.0,   -2.0,  999.0,   -1.0,   -0.1,  999.0,   -0.1,   -0.2,   -0.1,   -0.0,   -0.1,   -0.0,   -0.1,    0.2,    0.1,   -0.1,   -0.2,   -0.5,   -0.4,   -0.2,   -0.2,   -0.2,   -0.2,   -0.0,    0.0,    0.0,    0.1,   -0.1,    0.1,    0.1,    0.1,    0.1,   -0.0,    0.0,    0.2,   -0.3,   -0.1,    0.1,   -0.3,   -0.3,    0.1,  999.0,   -0.0,   -0.3,   -0.3,    0.0,   -0.1,    0.3,  999.0,   -0.4,   -0.2,  999.0,  999.0,  999.0,  999.0,  999.0,  999.0
2016/12/23 15:00,  999.0,    0.0,    0.2,    0.6,    0.5,    0.5,    1.0,   -0.2,   -0.0,    0.4,   -0.1,   -0.2,    0.2,    0.4,    0.1,   -0.1,   -0.4,   -0.3,   -0.2,   -0.1,   -0.4,   -0.6,   -1.3,  999.0,  999.0,   -0.8,   -0.4,   -0.5,    0.2,   -0.1,   -0.1,   -0.1,   -0.1,   -0.1,   -0.0,   -0.1,    0.0,   -0.1,    0.0,    0.1,   -0.1,    0.0,    0.2,   -0.0,   -0.1,    0.1,   -0.1,   -0.2,   -0.0,   -0.1,   -0.1,   -0.0,    0.1,    0.2,   -0.0,   -0.2,   -0.1,   -0.0,   -0.0,   -0.0,    0.0,   -0.0,    0.1,    0.1,   -0.0,    0.1,   -0.0,   -0.1,   -0.2,  999.0,  999.0,  999.0,    0.0,  999.0,  999.0,  999.0,  999.0,  999.0,  999.0,  999.0
2016/12/23 15:10,  999.0,    0.2,   -0.1,    0.6,   -0.2,    0.2,    0.5,    0.5,    0.5,  999.0,  999.0,  999.0,  999.0,   -1.9,  999.0,  999.0,   -0.4,  999.0,  999.0,  999.0,  999.0,  999.0,   -0.9,   -0.2,   -0.7,    0.0,   -0.4,   -0.4,    0.1,    0.1,   -0.0,    0.1,    0.2,   -0.5,   -0.2,   -0.2,   -0.0,  999.0,    0.0,    0.0,   -0.2,   -0.1,   -0.0,    0.2,    0.0,   -0.2,   -0.0,   -0.0,   -0.0,    0.0,    0.2,   -0.2,   -0.0,    0.3,   -0.0,   -0.2,   -0.0,   -0.3,    0.0,    0.2,   -0.0,    0.1,   -0.1,    0.0,    0.2,   -0.1,    0.0,    0.1,   -0.1,    0.1,   -0.0,   -0.3,  999.0,    0.3,  999.0,  999.0,  999.0,  999.0,  999.0,  999.0
2016/12/23 15:20,  999.0,   -0.1,   -0.2,    0.6,    0.1,    0.3,   -0.1,   -0.5,   -0.3,    0.0,   -0.5,    0.1,   -0.4,   -0.7,    3.2,    4.4,    2.5,    0.0,    5.2,    4.5,    2.1,   -2.0,   -2.8,   -3.1,   -2.6,   -2.1,   -2.7,   -0.3,   -0.2,    0.1,    0.2,    0.1,   -0.2,   -0.1,   -0.1,   -0.0,   -0.1,   -0.1,    0.1,   -0.1,   -0.3,   -0.2,   -0.1,    0.1,    0.0,   -0.1,    0.0,    0.1,    0.0,    0.2,   -0.1,   -0.1,    0.1,   -0.1,   -0.1,   -0.2,    0.1,   -0.1,    0.1,    0.3,   -0.1,    0.1,   -0.0,   -0.1,  999.0,   -0.2,   -0.0,   -0.0,  999.0,    0.0,  999.0,  999.0,   -0.5,  999.0,  999.0,  999.0,  999.0,  999.0,  999.0,  999.0
2016/12/23 15:30,  999.0,   -0.2,   -0.3,   -0.2,   -0.1,    0.1,   -0.3,   -0.3,    0.0,    0.0,    0.1,    0.5,    0.3,    0.8,    0.3,   -0.1,   -0.4,   -0.8,   -1.3,   -1.3,   -1.7,   -1.2,   -1.1,   -0.6,   -0.5,    0.1,   -0.0,   -0.0,   -0.0,    0.0,   -0.1,   -0.0,   -0.1,   -0.1,   -0.0,   -0.2,    0.2,   -0.2,   -0.1,   -0.0,   -0.2,   -0.1,    0.0,    0.2,   -0.0,    0.1,    0.2,   -0.0,    0.1,   -0.2,    0.0,    0.1,   -0.1,   -0.1,   -0.2,   -0.0,    0.1,   -0.2,   -0.1,   -0.1,   -0.1,    0.1,    0.0,    0.1,    0.1,    0.1,   -0.0,    0.1,    0.2,  999.0,  999.0,   -0.1,    0.0,    0.1,  999.0,  999.0,  999.0,  999.0,  999.0,  999.0
2016/12/23 15:40,  999.0,    0.1,    0.1,   -0.3,   -0.3,   -0.1,   -0.4,    0.2,    0.1,   -0.3,   -0.4,    0.3,    0.3,    0.4,    0.6,    0.7,   -0.1,   -1.1,   -0.8,   -0.3,   -0.9,   -1.2,   -1.6,   -1.3,   -1.0,   -0.3,   -0.2,   -0.1,    0.2,    0.1,   -0.0,   -0.0,    0.1,    0.1,   -0.0,   -0.0,    0.2,    0.1,   -0.2,   -0.3,   -0.2,   -0.0,    0.1,    0.0,   -0.1,   -0.2,    0.2,    0.2,    0.1,   -0.1,   -0.0,   -0.0,   -0.0,   -0.0,    0.1,   -0.1,   -0.0,    0.1,   -0.0,    0.1,    0.1,    0.1,    0.0,   -0.1,    0.1,   -0.2,   -0.2,   -0.1,   -0.3,   -0.2,    0.0,  999.0,   -0.1,    0.2,  999.0,  999.0,  999.0,  999.0,  999.0,  999.0
2016/12/23 15:50,  999.0,    0.0,    0.1,    0.1,   -0.1,    0.2,   -0.2,    0.2,    1.0,    1.5,    1.3,    1.8,    1.2,    0.1,    0.0,    0.0,    0.1,    0.1,   -0.1,   -0.2,   -0.0,   -0.2,   -0.7,   -0.4,   -0.6,   -0.0,   -0.2,   -0.1,    0.2,    0.1,   -0.2,   -0.0,   -0.0,   -0.1,    0.0,    0.1,    0.1,    0.0,    0.1,    0.1,   -0.0,   -0.1,    0.0,   -0.1,    0.1,    0.2,   -0.0,   -0.1,    0.1,    0.1,   -0.0,    0.1,   -0.1,   -0.0,    0.0,    0.2,    0.1,    0.0,    0.1,    0.2,   -0.1,   -0.0,   -0.2,   -0.1,   -0.1,   -0.1,   -0.1,    0.0,   -0.2,  999.0,   -0.0,    0.4,  999.0,   -0.1,   -0.0,  999.0,  999.0,  999.0,  999.0,  999.0
2016/12/23 16:00,  999.0,   -0.0,   -0.2,   -0.2,   -0.1,    0.0,   -0.8,   -0.2,    0.1,    0.2,    1.0,    1.4,    1.1,    0.9,    0.6,    0.0,   -0.2,   -0.1,   -0.0,   -0.1,   -0.3,   -0.5,   -0.5,   -0.5,   -1.1,   -1.1,   -0.9,   -0.3,    0.0,   -0.1,   -0.2,    0.0,   -0.1,   -0.1,    0.0,    0.0,    0.1,    0.4,    0.2,    0.2,   -0.1,   -0.2,    0.0,    0.1,    0.1,   -0.0,   -0.0,    0.1,   -0.1,   -0.1,    0.1,   -0.1,    0.0,   -0.2,   -0.1,   -0.0,   -0.1,   -0.1,    0.2,   -0.0,    0.1,    0.2,    0.1,    0.0,    0.1,    0.0,   -0.0,   -0.1,    0.0,   -0.1,    0.1,    0.2,    0.0,  999.0,  999.0,  999.0,  999.0,  999.0,  999.0,  999.0
2016/12/23 16:10,  999.0,   -0.5,   -0.4,   -0.1,    0.1,    0.1,    0.2,   -0.2,   -0.0,   -0.0,    0.0,    0.2,   -0.4,   -0.2,   -0.3,   -0.3,   -0.4,   -0.3,   -0.5,   -0.4,  999.0,   -0.2,   -0.6,  999.0,  999.0,    0.1,   -0.2,    0.0,   -0.0,   -0.1,   -0.0,   -0.1,   -0.2,    0.0,   -0.1,   -0.0,    0.0,   -0.0,    0.1,   -0.2,   -0.2,   -0.0,    0.1,    0.0,    0.1,   -0.1,    0.0,   -0.1,   -0.1,    0.1,    0.1,    0.1,   -0.1,   -0.0,    0.1,   -0.0,   -0.1,    0.3,    0.1,    0.1,    0.1,   -0.1,    0.4,   -0.0,   -0.0,   -0.1,    0.0,    0.0,   -0.1,   -0.1,   -0.2,   -0.1,   -0.1,   -0.2,   -0.1,    0.1,  999.0,  999.0,  999.0,  999.0
2016/12/23 16:20,  999.0,   -0.2,   -0.3,   -0.1,   -0.1,   -0.0,    0.1,   -0.1,    0.1,    0.1,    0.2,  999.0,    0.2,    0.1,    0.2,    0.3,   -0.0,  999.0,    0.0,  999.0,   -0.3,   -0.5,   -0.4,  999.0,   -0.1,    0.0,    0.2,    0.1,   -0.1,   -0.3,    0.0,   -0.0,    0.0,   -0.2,    0.0,    0.1,   -0.2,   -0.1,   -0.0,    0.0,   -0.2,   -0.2,    0.1,   -0.0,    0.1,    0.2,    0.1,   -0.0,   -0.0,   -0.1,    0.0,    0.1,    0.1,   -0.2,   -0.0,    0.1,    0.2,    0.0,    0.1,   -0.1,   -0.1,   -0.1,   -0.1,  999.0,    0.2,    0.1,   -0.0,   -0.0,   -0.1,   -0.2,  999.0,    0.0,  999.0,  999.0,   -0.1,  999.0,  999.0,  999.0,  999.0,  999.0
2016/12/23 16:30,  999.0,   -0.1,   -0.1,   -0.1,   -0.0,   -0.1,    0.1,   -0.1,   -0.1,   -0.1,    0.1,    0.1,   -0.0,   -0.1,    0.2,   -0.0,    0.0,   -0.1,    0.0,    0.1,   -0.3,   -0.6,   -0.4,   -0.1,   -0.1,   -0.1,   -0.1,   -0.0,    0.1,    0.1,    0.2,    0.0,    0.1,    0.2,    0.1,   -0.0,   -0.1,    0.0,    0.0,   -0.1,   -0.1,   -0.1,    0.1,    0.1,   -0.0,    0.0,   -0.1,   -0.1,    0.0,   -0.1,   -0.1,   -0.1,    0.0,    0.0,    0.0,    0.1,   -0.1,    0.1,   -0.1,    0.0,   -0.1,    0.0,    0.1,    0.1,    0.0,    0.1,   -0.1,    0.0,    0.0,   -0.3,    0.0,   -0.1,  999.0,   -0.2,  999.0,  999.0,  999.0,  999.0,  999.0,  999.0
2016/12/23 16:40,  999.0,   -0.0,   -0.2,   -0.0,   -0.2,    0.2,   -0.0,   -0.1,   -0.1,    0.2,    0.2,    0.1,   -0.0,   -0.0,    0.1,   -0.0,   -0.0,   -0.2,   -0.2,   -0.2,   -0.5,   -0.8,   -0.9,   -0.6,   -0.1,   -0.1,   -0.2,    0.1,   -0.0,   -0.1,    0.0,   -0.0,    0.1,   -0.0,    0.0,   -0.0,   -0.0,   -0.2,   -0.0,    0.0,   -0.5,   -0.2,    0.1,    0.1,    0.1,   -0.2,    0.0,    0.1,    0.1,   -0.1,   -0.0,   -0.0,    0.0,    0.2,    0.2,    0.0,   -0.0,    0.1,   -0.0,    0.1,   -0.3,   -0.3,   -0.3,    0.1,   -0.1,   -0.2,   -0.2,   -0.2,   -0.1,  999.0,    0.1,   -0.0,  999.0,    0.1,    0.1,  999.0,  999.0,  999.0,  999.0,  999.0
2016/12/23 16:50,  999.0,  999.0,   -0.1,    0.1,   -0.1,    0.0,   -0.2,    0.0,    0.1,    0.2,    0.4,    0.1,    0.3,    0.3,    0.3,    0.2,    0.3,    0.1,    0.0,   -0.0,   -0.2,   -0.2,   -0.6,   -0.8,   -0.9,   -0.4,   -0.4,   -0.2,    0.0,   -0.0,    0.0,   -0.1,   -0.1,   -0.1,   -0.2,   -0.1,    0.2,    0.0,    0.1,   -0.1,   -0.3,   -0.0,    0.0,    0.0,   -0.1,    0.0,   -0.1,    0.0,    0.1,   -0.3,    0.0,    0.1,    0.1,   -0.1,   -0.3,   -0.1,   -0.0,    0.0,    0.1,    0.0,    0.1,    0.2,    0.1,    0.1,   -0.0,    0.0,   -0.0,   -0.2,   -0.1,  999.0,  999.0,   -0.3,   -0.1,   -0.2,  999.0,  999.0,  999.0,  999.0,  999.0,  999.0
2016/12/23 17:00,  999.0,   -0.3,   -0.4,   -0.0,    0.0,   -0.0,    0.0,   -0.1,    0.0,   -0.1,    0.1,    0.1,    0.6,    0.7,    0.4,    0.5,    0.1,    0.2,    0.0,   -0.1,    0.0,   -0.1,   -0.4,   -1.2,   -1.3,   -0.4,   -0.4,    0.0,    0.0,   -0.2,   -0.1,   -0.2,   -0.0,    0.1,   -0.1,   -0.1,   -0.3,   -0.2,    0.0,   -0.2,   -0.3,   -0.4,    0.2,   -0.0,   -0.1,   -0.0,   -0.1,   -0.0,    0.0,    0.0,   -0.0,    0.1,    0.0,    0.0,   -0.1,   -0.1,   -0.1,    0.1,   -0.0,    0.0,   -0.1,   -0.0,    0.2,    0.0,    0.1,    0.1,    0.1,   -0.1,  999.0,  999.0,   -0.0,  999.0,  999.0,  999.0,  999.0,  999.0,  999.0,  999.0,  999.0,  999.0
2016/12/23 17:10,  999.0,   -0.3,   -0.0,    0.0,    0.0,   -0.3,   -0.2,   -0.1,    0.0,    0.3,    1.1,    0.9,    0.4,    0.2,    0.1,    0.3,    0.1,   -0.2,   -0.1,    0.1,    0.1,   -0.2,   -0.1,   -0.2,   -0.3,   -0.4,   -0.2,    0.1,   -0.0,   -0.1,   -0.1,   -0.0,   -0.1,    0.1,   -0.1,   -0.1,   -0.0,   -0.2,   -0.3,   -0.2,   -0.6,   -0.5,    0.1,   -0.0,   -0.2,   -0.1,   -0.0,   -0.0,    0.0,    0.0,    0.0,    0.0,    0.1,   -0.1,   -0.1,    0.2,    0.3,   -0.0,    0.3,    0.0,    0.0,    0.2,    0.5,    0.1,    0.2,    0.0,    0.1,    0.1,   -0.2,  999.0,  999.0,  999.0,  999.0,  999.0,  999.0,  999.0,  999.0,  999.0,  999.0,  999.0
2016/12/23 17:20,  999.0,    0.1,   -0.1,   -0.0,   -0.1,    0.1,   -0.2,    0.0,    0.4,    0.4,    0.4,    0.0,    0.2,    0.2,    0.3,    0.1,    0.3,    0.2,    0.0,    0.2,    0.1,   -0.0,   -0.0,    0.2,    0.3,    0.1,    0.1,   -0.1,   -0.1,    0.1,    0.0,   -0.2,    0.1,    0.2,    0.0,   -0.1,   -0.0,   -0.2,   -0.3,   -0.1,   -0.3,   -0.3,   -0.1,   -0.1,   -0.0,   -0.1,   -0.1,    0.1,    0.0,   -0.2,    0.2,   -0.0,    0.1,    0.1,    0.0,   -0.0,    0.1,   -0.2,   -0.1,    0.1,   -0.1,    0.0,   -0.2,    0.0,    0.1,    0.2,   -0.1,   -0.1,  999.0,    0.3,  999.0,  999.0,    0.2,  999.0,    0.0,  999.0,  999.0,  999.0,  999.0,  999.0
2016/12/23 17:30,  999.0,  999.0,   -0.0,    0.1,    0.1,    0.0,    0.3,    0.4,    0.3,   -0.1,   -0.0,    0.3,    0.1,    0.0,    0.1,    0.1,    0.0,    0.0,   -0.1,   -0.1,   -0.2,   -0.1,    0.2,   -0.2,   -0.0,   -0.0,   -0.1,    0.1,    0.1,   -0.1,   -0.1,    0.1,    0.0,    0.1,   -0.1,   -0.0,   -0.0,   -0.2,    0.0,   -0.1,   -0.1,   -0.1,   -0.0,    0.1,   -0.0,    0.0,    0.0,   -0.1,    0.1,   -0.1,   -0.1,   -0.1,    0.1,    0.1,    0.1,   -0.1,    0.0,   -0.0,   -0.2,    0.1,   -0.0,   -0.3,   -0.1,   -0.3,   -0.0,    0.0,    0.3,    0.5,   -0.2,    0.1,    0.1,    0.3,  999.0,    0.2,   -0.1,  999.0,  999.0,  999.0,  999.0,  999.0
2016/12/23 17:40,  999.0,    0.4,    0.2,    0.6,    0.9,    0.5,    0.5,    0.1,    0.2,    0.2,    0.1,    0.5,    0.3,    0.2,    0.0,   -0.1,    0.0,    0.0,   -0.2,    0.1,    0.0,    0.1,    0.1,   -0.1,    0.2,    0.1,   -0.1,   -0.1,    0.1,    0.0,    0.0,   -0.0,   -0.0,   -0.0,   -0.0,    0.0,    0.1,    0.4,   -0.3,   -0.1,   -0.3,    0.0,    0.2,    0.1,    0.0,    0.1,    0.1,    0.1,    0.0,   -0.0,    0.0,    0.2,   -0.1,   -0.2,   -0.1,   -0.2,   -0.1,   -0.1,   -0.1,    0.1,   -0.0,    0.0,   -0.1,   -0.4,    0.3,    0.0,    0.1,    0.1,  999.0,   -0.1,    0.6,   -0.0,   -0.1,    0.1,   -0.1,  999.0,  999.0,  999.0,  999.0,  999.0
2016/12/23 17:50,  999.0,    0.3,   -0.4,    0.1,    0.1,    0.1,    0.0,   -0.1,    0.0,    0.0,   -0.6,    0.8,    0.2,    0.6,    0.6,    0.2,    0.3,    0.2,    0.2,    0.2,    0.4,    0.2,    0.2,    0.3,   -0.0,   -0.0,   -0.1,    0.1,    0.2,    0.1,    0.0,   -0.0,   -0.1,    0.0,   -0.1,   -0.0,   -0.0,   -0.1,   -0.2,   -0.2,   -0.3,   -0.1,    0.0,    0.0,   -0.1,   -0.1,   -0.1,   -0.1,   -0.0,   -0.1,    0.3,   -0.0,   -0.1,   -0.2,    0.1,    0.2,    0.1,   -0.0,    0.1,    0.2,   -0.0,   -0.1,   -0.1,   -0.0,   -0.2,   -0.0,   -0.2,  999.0,    0.0,   -0.1,  999.0,   -0.2,    0.0,  999.0,   -0.1,  999.0,  999.0,  999.0,  999.0,  999.0
2016/12/23 18:00,  999.0,   -0.1,   -0.1,    0.8,    0.2,    0.3,    1.3,    1.3,    1.5,    0.9,   -0.3,    0.6,    1.1,  999.0,    0.8,    0.6,   -0.1,   -0.8,   -0.8,    0.2,    0.2,    0.4,    0.9,   -0.8,    1.2,    0.4,    1.1,    0.7,    0.5,    0.3,    0.2,    0.2,   -0.0,    0.0,   -0.0,    0.1,    0.1,   -0.0,    0.3,    0.0,   -0.5,   -0.3,    0.0,    0.1,    0.0,    0.2,   -0.1,    0.0,   -0.0,   -0.1,   -0.0,    0.2,    0.0,   -0.3,   -0.0,   -0.2,   -0.0,    0.0,   -0.2,    0.0,    0.0,    0.2,   -0.1,    0.0,    0.2,    0.4,    0.2,   -0.1,  999.0,   -0.1,   -0.3,    0.2,    0.2,    0.0,   -0.3,  999.0,  999.0,  999.0,  999.0,  999.0
2016/12/23 18:10,  999.0,   -0.3,    0.0,    0.0,    0.3,    0.0,    0.2,    0.2,   -0.7,    0.9,    2.1,    2.5,    1.0,    2.9,    1.5,    1.6,    2.3,    0.8,    1.1,    0.9,    0.7,    2.4,    3.4,    1.3,    0.9,    0.7,    1.0,    0.3,    0.2,    0.2,   -0.1,    0.2,    0.2,   -0.1,   -0.1,   -0.2,   -0.1,   -0.3,   -0.2,   -0.1,   -0.3,   -0.2,   -0.1,   -0.1,   -0.2,   -0.2,   -0.1,    0.0,    0.2,    0.1,   -0.0,   -0.1,    0.0,   -0.0,   -0.1,    0.0,   -0.2,    0.1,    0.0,   -0.0,   -0.1,    0.0,    0.1,   -0.0,   -0.0,    0.2,   -0.2,   -0.3,   -0.0,   -0.0,   -0.0,   -0.1,    0.1,   -0.0,   -0.1,  999.0,  999.0,  999.0,  999.0,  999.0
2016/12/23 18:20,  999.0,    0.6,    0.1,   -0.1,    0.2,    0.2,    0.2,    0.0,    0.5,    1.3,    2.2,    2.4,    1.9,    2.6,    1.9,    1.4,    1.1,    0.6,    0.8,    0.5,    0.4,    1.3,    2.0,    1.6,    1.7,    0.7,    0.6,    0.5,    0.1,    0.5,    0.1,    0.4,   -0.1,   -0.0,   -0.2,    0.1,   -0.3,    0.5,   -0.1,   -0.2,   -0.5,   -0.3,    0.1,   -0.1,   -0.2,   -0.2,    0.2,    0.1,   -0.0,   -0.1,    0.1,    0.3,   -0.1,   -0.0,    0.2,   -0.0,    0.2,   -0.1,    0.1,    0.0,    0.1,    0.0,    0.2,   -0.2,    0.1,    0.0,   -0.0,   -0.1,    0.0,    0.3,    0.0,    0.1,  999.0,  999.0,  999.0,  999.0,  999.0,  999.0,  999.0,  999.0
2016/12/23 18:30,  999.0,    0.2,   -0.3,    0.0,   -0.4,    0.0,   -0.1,    0.1,    0.1,    0.5,    0.1,    1.1,    2.3,    1.3,    0.3,    0.9,    1.0,    0.5,    0.6,    0.3,    0.5,    1.8,    1.9,    1.2,    0.4,    0.5,    0.4,    0.7,    0.4,    0.4,    0.1,   -0.1,    0.1,    0.4,   -0.1,  999.0,  999.0,   -0.0,    0.0,   -0.0,   -0.4,   -0.2,   -0.1,    0.1,   -0.0,   -0.0,    0.0,   -0.1,    0.1,    0.2,   -0.0,   -0.0,   -0.1,   -0.0,   -0.1,   -0.0,   -0.0,    0.0,    0.1,    0.2,    0.1,    0.0,   -0.0,    0.1,   -0.2,   -0.0,    0.2,  999.0,   -0.2,  999.0,   -0.1,   -0.2,    0.3,  999.0,    0.1,  999.0,  999.0,  999.0,  999.0,  999.0
2016/12/23 18:40,  999.0,    0.2,    0.3,    0.2,    0.0,   -0.1,    0.8,    0.3,    0.1,    0.3,    1.3,    1.3,    0.6,    1.3,    1.2,    1.1,    1.4,    0.3,    0.1,    0.5,    1.1,    1.4,    1.8,    2.9,    1.7,    0.9,    0.4,    0.2,    0.3,    0.5,    0.0,   -0.0,    0.2,   -0.1,   -0.4,    0.3,   -0.1,    0.2,    0.0,   -0.2,   -0.5,   -0.3,   -0.1,   -0.0,   -0.0,   -0.1,   -0.0,   -0.1,   -0.2,   -0.0,    0.1,    0.0,   -0.1,    0.1,   -0.1,    0.0,   -0.1,   -0.2,    0.1,   -0.1,    0.1,    0.0,   -0.2,   -0.2,   -0.1,    0.0,   -0.2,   -0.0,   -0.2,  999.0,    0.3,  999.0,   -0.5,   -0.1,  999.0,  999.0,  999.0,  999.0,  999.0,  999.0
2016/12/23 18:50,  999.0,    0.2,   -0.3,   -0.1,   -0.3,   -0.3,    0.1,    0.1,    0.0,    0.3,    1.6,  999.0,   -0.6,    0.3,    1.0,    1.3,    1.1,    0.4,    0.4,    1.0,    1.9,    2.4,    2.3,    3.0,    2.6,    2.4,    1.6,    0.3,    0.4,    0.5,    0.4,    0.2,    0.1,  999.0,   -0.1,   -0.2,    0.2,   -0.4,   -0.3,    0.3,   -0.2,   -0.2,    0.1,   -0.0,    0.1,    0.0,    0.1,    0.0,   -0.1,    0.1,    0.1,   -0.0,   -0.1,   -0.1,    0.1,    0.1,   -0.1,   -0.2,    0.0,   -0.2,    0.1,   -0.0,    0.3,   -0.1,    0.1,   -0.0,    0.2,    0.1,    0.1,  999.0,    0.3,   -0.1,  999.0,  999.0,  999.0,  999.0,  999.0,  999.0,  999.0,  999.0
2016/12/23 19:00,  999.0,   -0.1,    0.1,   -1.0,  999.0,   -0.3,   -0.1,   -0.2,   -0.0,    0.4,  999.0,  999.0,  999.0,    1.6,    1.8,    1.2,    0.3,    0.2,    0.5,    1.6,    1.1,    2.1,  999.0,    1.1,    0.9,    1.1,    0.0,    0.3,    0.2,    0.5,    0.4,    0.0,    0.0,    0.0,   -0.3,   -0.2,   -0.1,    0.0,    0.0,    0.3,   -0.3,   -0.1,    0.2,   -0.0,    0.2,   -0.2,   -0.3,   -0.0,   -0.2,   -0.1,    0.0,    0.0,   -0.1,    0.0,    0.0,   -0.1,   -0.2,   -0.2,   -0.2,   -0.1,    0.2,   -0.0,   -0.1,    0.1,    0.1,    0.2,    0.2,    0.0,    0.0,    0.1,   -0.2,   -0.4,    0.4,  999.0,  999.0,  999.0,  999.0,  999.0,  999.0,  999.0
2016/12/23 19:10,  999.0,   -0.7,   -0.5,   -0.1,   -0.1,   -0.2,   -0.1,   -0.2,   -0.7,   -0.9,  999.0,   -0.6,   -0.5,    1.0,    1.6,    1.8,    0.8,    1.1,    1.5,    1.2,  999.0,    3.8,    5.2,    6.2,    4.8,    3.1,    2.0,    0.6,    0.2,    0.7,    0.8,    0.3,    0.2,    0.1,    0.1,    0.1,  999.0,    0.2,    0.2,   -0.0,   -0.3,   -0.3,    0.2,    0.0,    0.2,    0.0,    0.0,    0.0,   -0.1,   -0.0,   -0.1,   -0.0,    0.2,    0.2,    0.2,    0.0,    0.1,   -0.1,   -0.2,   -0.0,    0.0,   -0.1,    0.1,   -0.1,    0.2,    0.3,   -0.2,   -0.1,  999.0,   -0.1,    0.2,  999.0,   -0.0,   -0.1,  999.0,  999.0,  999.0,  999.0,  999.0,  999.0
2016/12/23 19:20,  999.0,    0.2,   -0.4,    0.1,   -0.1,   -0.1,   -0.1,   -0.3,   -0.7,   -0.2,   -0.5,   -0.5,   -0.0,    0.4,    0.9,    0.9,    0.5,    0.5,    0.6,    0.5,    0.5,    2.2,    1.6,    4.0,    4.2,    4.1,    1.2,    0.4,    0.5,    0.3,    0.3,    0.1,   -0.1,   -0.1,    0.0,    0.0,   -0.0,   -0.1,   -0.2,    0.1,   -0.2,   -0.1,   -0.1,    0.0,    0.0,    0.1,    0.0,    0.1,    0.3,    0.1,   -0.3,    0.2,    0.1,    0.3,   -0.2,   -0.0,    0.2,    0.1,    0.1,    0.1,    0.2,    0.1,   -0.1,    0.1,   -0.1,   -0.2,   -0.0,   -0.2,   -0.1,   -0.0,  999.0,   -0.3,   -0.4,  999.0,  999.0,  999.0,  999.0,  999.0,  999.0,  999.0
2016/12/23 19:30,  999.0,    0.2,    0.0,   -0.3,   -0.2,   -0.1,    0.0,    0.0,   -0.5,   -0.7,   -1.1,   -0.5,   -0.2,    0.0,    0.2,    0.3,    0.2,    0.4,    0.1,    0.3,    0.8,    1.2,    1.4,    1.6,    3.0,    5.3,    2.4,    1.7,    0.6,    0.4,    0.2,    0.3,    0.2,    0.0,   -0.1,    0.3,   -0.0,   -0.4,   -0.1,    0.0,   -0.4,   -0.0,   -0.1,   -0.1,    0.1,    0.2,   -0.0,   -0.1,   -0.0,    0.2,   -0.1,    0.1,   -0.1,    0.1,    0.3,    0.0,   -0.1,    0.1,    0.1,   -0.1,   -0.1,   -0.1,    0.2,    0.1,    0.1,    0.2,    0.0,   -0.0,  999.0,   -0.0,   -0.0,  999.0,  999.0,  999.0,  999.0,  999.0,  999.0,  999.0,  999.0,  999.0
2016/12/23 19:40,  999.0,    0.2,    0.1,    0.1,    0.1,    0.3,    0.7,    0.2,   -0.1,   -0.4,   -0.8,   -0.2,    0.1,    0.0,    0.2,    0.1,    0.2,    0.2,    0.1,    0.2,    0.2,    0.6,    1.2,    1.7,    1.8,    2.6,    1.0,    0.8,    1.0,    0.3,    0.1,    0.4,    0.2,    0.0,    0.0,    0.1,   -0.4,  999.0,    0.1,    0.0,   -0.2,   -0.1,   -0.0,   -0.0,    0.0,   -0.1,    0.0,   -0.0,   -0.0,  999.0,   -0.0,   -0.1,   -0.1,    0.2,    0.1,    0.1,    0.1,    0.1,   -0.2,    0.3,    0.1,    0.1,    0.3,    0.3,    0.2,    0.3,   -0.0,    0.1,    0.0,  999.0,   -0.1,  999.0,  999.0,  999.0,  999.0,  999.0,  999.0,  999.0,  999.0,  999.0
2016/12/23 19:50,  999.0,    0.3,    0.0,   -0.1,   -0.2,   -0.1,   -0.1,   -0.0,   -0.0,    0.0,   -0.3,    0.7,    0.8,    0.4,    0.1,    0.2,    0.4,    0.4,    0.3,    0.3,    0.9,    1.5,    2.9,    4.3,    3.1,    4.6,    3.0,    1.0,    0.8,    0.5,    0.1,   -0.3,    0.2,    0.2,  999.0,   -0.1,   -0.2,    0.1,   -0.3,   -0.0,   -0.1,   -0.2,   -0.0,    0.0,    0.0,   -0.1,   -0.1,   -0.3,   -0.0,    0.1,   -0.1,   -0.1,    0.0,    0.2,   -0.3,   -0.1,    0.3,    0.1,   -0.2,   -0.1,    0.1,   -0.0,    0.1,   -0.0,    0.3,   -0.0,    0.4,   -0.1,    0.2,  999.0,    0.1,  999.0,  999.0,  999.0,  999.0,  999.0,  999.0,  999.0,  999.0,  999.0
2016/12/23 20:00,  999.0,    0.2,   -0.2,   -0.2,    0.0,   -0.2,   -0.1,    0.0,   -0.3,   -0.5,   -0.4,   -0.9,   -0.9,    0.1,    0.3,    0.4,    0.4,    0.3,    0.4,    0.5,    0.9,    2.0,    2.7,    2.6,    2.7,    2.9,    3.2,    2.2,    1.1,    1.6,    2.3,    0.9,    0.1,   -0.0,    0.0,    0.6,  999.0,   -0.6,  999.0,   -0.2,   -0.4,   -0.5,    0.1,    0.1,    0.1,    0.0,    0.1,    0.0,   -0.2,   -0.2,   -0.1,   -0.3,    0.1,    0.4,    0.1,   -0.1,   -0.0,    0.2,   -0.2,   -0.0,    0.0,    0.2,   -0.1,    0.0,   -0.2,    0.1,   -0.0,    0.1,  999.0,  999.0,    0.5,  999.0,  999.0,  999.0,  999.0,  999.0,  999.0,  999.0,  999.0,  999.0
2016/12/23 20:10,  999.0,    0.7,   -0.2,    0.4,   -0.0,   -0.3,   -0.3,    0.1,    0.3,    0.4,    0.4,    0.9,    0.5,    0.6,    1.0,    1.1,    1.1,    1.4,    1.2,    1.2,    1.1,    2.3,    1.9,    3.1,    5.4,    2.7,    2.0,    0.3,   -0.1,    0.3,    1.4,    1.1,   -0.1,    0.1,    0.1,   -0.0,    0.1,  999.0,   -0.0,    0.1,   -0.7,   -0.8,   -0.1,   -0.0,    0.1,   -0.0,   -0.0,    0.2,   -0.0,  999.0,   -0.1,   -0.1,    0.1,   -0.1,   -0.2,    0.2,    0.1,    0.1,    0.2,    0.3,   -0.3,  999.0,    0.6,    0.1,    0.5,    0.2,   -0.0,   -0.2,  999.0,  999.0,  999.0,  999.0,  999.0,  999.0,  999.0,  999.0,  999.0,  999.0,  999.0,  999.0
2016/12/23 20:20,  999.0,    0.3,   -0.0,   -0.2,   -0.1,    0.0,   -0.1,   -0.1,   -0.0,    0.3,   -0.0,    0.7,    0.4,   -0.2,    0.4,    0.3,    1.0,    0.9,    0.9,    2.7,    2.4,    4.7,    5.3,    3.6,    4.5,    3.5,    2.3,    0.0,    0.1,    0.6,    0.8,    0.6,    0.2,   -0.4,   -0.1,    0.1,  999.0,  999.0,   -0.4,   -0.2,   -0.4,  999.0,   -0.4,   -0.2,    0.1,    0.5,    0.0,   -0.2,   -0.3,   -0.3,   -0.2,   -0.5,    0.1,   -0.1,   -0.1,   -0.1,   -0.1,   -0.3,   -0.1,    0.0,    0.0,   -0.1,  999.0,   -0.1,   -0.2,    0.3,  999.0,   -0.3,   -0.1,  999.0,  999.0,  999.0,  999.0,  999.0,  999.0,  999.0,  999.0,  999.0,  999.0,  999.0
2016/12/23 20:30,  999.0,   -0.2,   -0.4,   -0.1,   -0.1,   -0.3,   -0.2,    0.1,   -0.1,    0.7,    0.8,    1.1,    1.0,    0.7,    0.6,    0.8,    1.1,    1.0,    1.7,    2.1,    2.3,    2.1,    5.8,    6.4,    6.0,    3.4,    2.2,    0.6,    0.1,   -0.1,    1.2,    2.3,    0.4,    0.1,   -0.0,   -0.1,  999.0,   -0.1,   -0.1,    0.0,   -0.4,   -0.1,    0.0,    0.1,    0.1,    0.0,    0.2,   -0.1,    0.0,    0.2,   -0.3,  999.0,    0.1,   -0.0,   -0.1,   -1.0,   -0.2,  999.0,  999.0,    0.2,    0.4,  999.0,    0.2,    0.2,   -0.1,  999.0,  999.0,  999.0,    0.4,  999.0,  999.0,    0.0,  999.0,  999.0,  999.0,  999.0,  999.0,  999.0,  999.0,  999.0
2016/12/23 20:40,  999.0,   -0.0,   -0.2,   -0.3,    0.0,    0.1,   -0.2,   -0.4,   -0.2,    0.4,    1.2,    0.5,    0.6,    0.6,    0.5,    0.9,    0.9,    1.3,    3.5,    3.2,    3.6,    4.0,    4.8,    6.8,    4.6,    4.5,    2.1,    0.5,    0.1,    0.4,    0.5,    1.7,    0.8,    0.2,    0.1,    0.2,    0.1,   -0.2,  999.0,    0.1,   -0.4,   -0.4,   -0.4,   -0.0,   -0.0,    0.1,   -0.1,  999.0,   -0.2,    0.2,   -0.1,   -0.0,   -0.3,   -0.4,    0.1,    0.3,  999.0,    0.2,    0.2,   -0.3,   -0.2,   -0.3,  999.0,    0.4,    0.2,    0.1,    0.2,    0.2,  999.0,  999.0,  999.0,  999.0,  999.0,  999.0,  999.0,  999.0,  999.0,  999.0,  999.0,  999.0
2016/12/23 20:50,  999.0,   -0.2,   -0.2,   -0.2,    0.2,    0.2,   -0.0,    0.3,   -0.1,   -0.4,   -0.1,    0.1,    0.7,    1.1,    1.0,    1.6,    3.2,    3.5,    3.2,  999.0,  999.0,  999.0,    5.8,    7.8,    6.9,    5.0,    1.8,    0.4,    0.1,    0.1,    0.4,    0.7,    0.3,   -0.1,    0.0,    0.2,  999.0,    0.3,  999.0,   -0.2,   -0.5,   -0.4,   -0.1,   -0.2,  999.0,    0.0,    0.1,   -0.1,   -0.0,   -0.3,   -0.3,   -0.1,    0.1,    0.0,   -0.2,    0.1,    0.0,   -0.2,   -0.2,    0.2,   -0.0,    0.0,    0.2,   -0.2,   -0.1,    0.1,   -0.2,  999.0,  999.0,  999.0,  999.0,  999.0,  999.0,  999.0,  999.0,  999.0,  999.0,  999.0,  999.0,  999.0
2016/12/23 21:00,  999.0,   -0.3,   -0.3,   -0.0,    0.1,    0.1,    0.2,    0.1,    0.4,    0.0,  999.0,    0.6,    0.5,    0.9,    1.1,    0.8,    1.6,    2.3,    2.2,    3.3,    4.1,  999.0,  999.0,  999.0,  999.0,    3.0,    2.0,    0.1,   -0.1,    0.3,    0.6,    0.7,    0.8,    0.0,    0.2,   -0.1,  999.0,  999.0,    0.3,   -0.0,   -0.7,  999.0,   -0.1,    0.4,   -0.0,   -0.0,    0.4,  999.0,   -0.1,    0.0,    0.0,    0.2,    0.0,   -0.1,   -0.1,    0.0,    0.1,    0.4,    0.0,   -0.1,    0.1,   -0.2,   -0.1,   -0.0,   -0.3,   -0.2,   -0.3,   -0.0,    0.1,  999.0,  999.0,  999.0,  999.0,  999.0,  999.0,  999.0,  999.0,  999.0,  999.0,  999.0
2016/12/23 21:10,  999.0,   -0.1,   -0.1,   -0.4,   -0.2,   -0.1,   -0.1,    0.0,   -0.2,   -0.1,    0.1,   -0.0,   -0.4,    0.4,    1.0,    1.6,    1.3,    1.0,    1.9,    2.4,    3.1,  999.0,  999.0,    9.0,    5.2,    9.2,    5.2,    1.6,    0.0,    0.2,    0.5,    0.5,    0.2,    0.1,   -0.0,   -0.0,    0.2,   -0.1,  999.0,  999.0,   -0.2,   -0.1,    0.2,    0.2,   -0.2,    0.2,    0.1,  999.0,    0.2,    0.3,    0.2,    0.3,   -0.1,   -0.0,   -0.1,    0.0,   -0.0,    0.0,   -0.2,   -0.2,    0.1,    0.2,   -0.0,   -0.4,    0.3,  999.0,  999.0,    0.0,   -0.1,  999.0,    0.2,  999.0,  999.0,  999.0,  999.0,  999.0,  999.0,  999.0,  999.0,  999.0
2016/12/23 21:20,  999.0,    0.0,   -0.1,    0.0,   -0.1,   -0.1,   -0.0,   -0.0,   -0.0,    0.1,   -0.1,    0.4,   -0.6,   -0.3,    1.2,    0.8,    0.5,    1.2,    1.4,    1.7,    2.0,    2.3,    4.6,  999.0,    5.1,  999.0,    3.3,    2.3,    0.6,    0.1,   -0.0,    0.2,    0.4,    0.1,    0.3,    0.3,   -0.1,  999.0,    0.3,  999.0,   -0.6,   -0.2,   -0.1,   -0.1,   -0.2,   -0.1,   -0.2,   -0.3,    0.3,    0.1,    0.0,    0.3,   -0.2,    0.0,   -0.0,   -0.1,    0.0,   -0.5,   -0.1,   -0.0,   -0.3,   -0.0,    0.2,   -0.2,    0.2,   -0.2,  999.0,   -0.1,  999.0,  999.0,  999.0,    0.1,   -0.5,  999.0,  999.0,  999.0,  999.0,  999.0,  999.0,  999.0
2016/12/23 21:30,  999.0,   -0.2,   -0.1,   -0.1,    0.1,    0.1,   -0.0,   -0.1,   -0.4,    0.3,    1.1,   -0.9,    0.1,    0.7,    1.0,    1.5,    2.2,    1.4,    1.6,    2.5,    2.3,    3.6,    5.5,    3.2,    3.2,    2.0,    1.3,    0.7,    0.2,    0.1,    0.1,    0.0,    0.4,    0.2,   -0.0,  999.0,  999.0,  999.0,  999.0,    0.0,   -0.3,  999.0,  999.0,   -0.3,   -0.2,    0.2,   -0.1,   -0.3,   -0.2,  999.0,   -0.1,   -0.3,  999.0,   -0.1,   -0.1,   -0.2,   -0.5,   -0.2,   -0.2,   -0.2,   -0.1,    0.2,  999.0,  999.0,   -0.0,    0.1,   -0.0,  999.0,   -0.4,  999.0,  999.0,  999.0,    0.5,    0.1,  999.0,  999.0,  999.0,  999.0,  999.0,  999.0
2016/12/23 21:40,  999.0,   -0.2,   -0.5,    0.0,    0.0,   -0.4,   -0.8,   -1.3,   -0.6,  999.0,   -0.0,    1.1,    5.4,    1.8,    3.4,    1.1,   -1.1,   -0.2,    1.1,    1.5,    3.7,  999.0,  999.0,  999.0,    5.7,  999.0,    0.5,    0.3,  999.0,    0.1,   -0.3,    0.2,    0.4,    0.3,  999.0,    0.1,    0.1,  999.0,   -0.1,    0.7,   -0.4,   -0.6,   -0.0,  999.0,  999.0,   -0.1,    0.3,   -0.0,  999.0,   -0.3,  999.0,  999.0,  999.0,    0.3,    0.2,    0.0,    0.0,   -0.0,    0.0,   -0.4,   -0.2,   -0.0,  999.0,  999.0,   -0.5,  999.0,   -0.2,    0.0,  999.0,  999.0,    0.1,    0.2,  999.0,  999.0,  999.0,    0.4,  999.0,  999.0,  999.0,  999.0
2016/12/23 21:50,  999.0,   -0.0,   -0.1,    0.1,   -0.1,    0.0,   -0.4,   -1.2,    0.4,   -0.4,    1.8,  999.0,  999.0,  999.0,   -2.6,   -1.0,    1.0,    1.0,    3.3,  999.0,  999.0,  999.0,  999.0,  999.0,  999.0,  999.0,  999.0,    1.5,    0.4,   -0.1,    0.1,    0.2,    0.1,  999.0,  999.0,   -0.1,   -0.0,  999.0,  999.0,  999.0,   -0.3,  999.0,  999.0,    0.3,    0.1,    0.4,  999.0,   -0.1,    0.2,    0.2,    0.3,  999.0,    0.1,   -0.2,   -0.0,   -0.1,   -0.1,    0.2,    0.1,    0.1,  999.0,  999.0,    0.2,    0.2,    0.5,    0.4,   -0.0,   -0.1,  999.0,  999.0,  999.0,   -0.2,  999.0,    0.0,  999.0,  999.0,  999.0,  999.0,  999.0,  999.0
2016/12/23 22:00,  999.0,  999.0,    0.3,   -0.8,   -0.5,   -0.2,  999.0,  999.0,  999.0,  999.0,  999.0,  999.0,    2.8,    1.3,    1.4,    2.1,    1.0,    4.5,    5.3,    4.8,    7.7,   10.7,   12.0,  999.0,  999.0,  999.0,  999.0,  999.0,  999.0,  999.0,  999.0,  999.0,  999.0,  999.0,  999.0,  999.0,  999.0,  999.0,  999.0,  999.0,  999.0,  999.0,  999.0,   -0.0,  999.0,  999.0,  999.0,   -0.1,  999.0,    0.3,  999.0,  999.0,  999.0,   -0.2,   -0.2,    0.1,   -0.0,  999.0,  999.0,    0.2,  999.0,  999.0,  999.0,  999.0,  999.0,  999.0,  999.0,    0.0,   -0.1,  999.0,  999.0,  999.0,  999.0,  999.0,  999.0,  999.0,  999.0,  999.0,  999.0,  999.0
2016/12/23 22:10,  999.0,   -0.1,    0.0,  999.0,    2.4,    1.8,    1.0,   -1.6,    0.5,    2.0,    0.3,    0.0,    0.5,    2.5,    2.4,  999.0,    1.6,    3.1,    8.6,  999.0,  999.0,  999.0,  999.0,  999.0,  999.0,  999.0,  999.0,    0.7,  999.0,  999.0,  999.0,  999.0,  999.0,  999.0,  999.0,  999.0,  999.0,  999.0,  999.0,  999.0,   -0.5,  999.0,  999.0,  999.0,  999.0,    0.1,    0.1,    0.3,  999.0,   -0.0,    0.0,   -0.2,   -0.1,   -0.1,  999.0,  999.0,  999.0,  999.0,  999.0,    0.4,  999.0,   -0.0,   -0.3,  999.0,   -0.1,    0.0,  999.0,   -0.2,    0.3,  999.0,   -0.3,  999.0,  999.0,  999.0,  999.0,  999.0,  999.0,  999.0,  999.0,  999.0
2016/12/23 22:20,  999.0,   -0.3,   -0.6,    0.1,    0.0,    0.1,   -1.2,   -3.8,   -1.6,   -0.5,   -2.0,   -2.0,   -1.3,    0.1,    0.5,    0.5,    0.4,    0.7,    0.6,    0.8,  999.0,  999.0,  999.0,  999.0,   -0.0,    0.2,    0.0,    0.2,   -0.0,    0.2,    0.1,    0.0,    0.1,   -0.1,   -0.1,    0.3,    0.2,    0.5,    0.2,   -0.3,   -0.4,  999.0,  999.0,   -0.0,    0.2,   -0.0,   -0.2,   -0.4,   -0.2,  999.0,    0.1,    0.2,    0.2,    0.1,    0.1,    0.1,   -0.1,   -0.1,    0.4,   -0.3,   -0.1,   -0.1,   -0.3,   -0.1,   -0.1,    0.1,    0.0,    0.0,  999.0,    0.4,    0.8,  999.0,    0.1,  999.0,  999.0,  999.0,  999.0,  999.0,  999.0,  999.0
2016/12/23 22:30,  999.0,   -0.2,  999.0,   -0.5,    0.2,  999.0,    0.9,    1.2,    0.1,    1.3,    0.8,    0.7,    0.8,    0.7,   -0.1,    0.3,    0.1,   -0.1,   -0.2,    0.1,    0.1,  999.0,    2.0,    0.0,    0.5,    0.2,   -0.1,   -0.1,   -0.1,   -0.2,   -0.1,   -0.0,    0.2,    0.1,  999.0,   -0.0,  999.0,  999.0,    0.1,   -0.1,   -0.8,   -0.7,  999.0,   -0.3,   -0.3,  999.0,    0.2,    0.3,    0.1,   -0.1,   -0.1,   -0.5,   -0.0,   -0.2,   -0.1,   -0.0,    0.1,   -0.2,    0.1,   -0.2,  999.0,    0.0,    0.0,   -0.0,   -0.1,   -0.0,   -0.1,    0.2,  999.0,    0.1,   -0.2,    0.1,    0.2,  999.0,  999.0,  999.0,  999.0,  999.0,  999.0,  999.0
2016/12/23 22:40,  999.0,   -0.2,   -0.1,    0.2,    0.0,    0.4,    0.0,    0.2,   -1.2,    0.7,    0.5,    0.9,    1.3,    1.0,    1.2,    1.2,    2.0,    0.7,    1.0,    1.7,  999.0,  999.0,  999.0,   -0.1,   -0.3,    0.1,    0.0,    0.0,    0.1,    0.2,   -0.0,   -0.1,    0.1,  999.0,  999.0,  999.0,  999.0,  999.0,   -0.1,  999.0,   -0.6,   -0.3,    0.0,   -0.3,   -0.0,    0.1,  999.0,  999.0,    0.1,    0.2,    0.5,   -0.2,  999.0,   -0.1,    0.3,   -0.0,   -0.2,  999.0,   -0.0,    0.3,    0.2,   -0.1,  999.0,   -0.2,  999.0,  999.0,    0.1,  999.0,    0.1,  999.0,    0.7,    0.2,    0.3,    0.3,    0.2,    0.2,  999.0,  999.0,  999.0,  999.0
2016/12/23 22:50,  999.0,   -0.1,   -0.3,    0.1,    0.1,    0.1,   -0.4,   -0.1,    0.5,    4.1,    2.2,    0.3,    1.8,    1.7,    1.1,    1.7,    1.9,    2.2,    1.0,    0.4,    0.4,    0.3,  999.0,  999.0,   -1.6,   -1.3,   -0.3,    0.0,    0.2,    0.1,   -0.1,    0.1,    0.1,  999.0,   -0.2,  999.0,  999.0,  999.0,   -0.3,   -0.4,   -0.6,   -0.0,    0.3,    0.2,    0.2,   -0.1,   -0.1,   -0.0,   -0.4,   -0.1,    0.0,  999.0,    0.2,  999.0,   -0.1,   -0.1,   -0.1,   -0.1,    0.0,  999.0,    0.1,    0.2,   -0.2,  999.0,   -0.0,   -0.2,    0.1,  999.0,    0.6,  999.0,  999.0,  999.0,   -0.4,  999.0,  999.0,  999.0,  999.0,  999.0,  999.0,  999.0
2016/12/23 23:00,  999.0,   -0.1,   -0.1,    0.0,   -0.7,    0.5,    3.0,    2.6,    4.2,  999.0,    2.7,    1.5,    7.7,    6.5,  999.0,    9.3,    6.7,    5.9,    8.6,    8.6,  999.0,  999.0,  999.0,  999.0,  999.0,  999.0,  999.0,   -0.5,    0.0,   -0.2,    0.0,  999.0,    0.4,  999.0,  999.0,   -0.3,   -0.3,    0.1,  999.0,  999.0,  999.0,  999.0,  999.0,  999.0,  999.0,  999.0,  999.0,  999.0,    0.0,    0.1,  999.0,    0.0,  999.0,   -0.3,  999.0,    0.1,   -0.6,  999.0,  999.0,  999.0,  999.0,  999.0,  999.0,  999.0,  999.0,   -0.1,  999.0,  999.0,  999.0,  999.0,  999.0,  999.0,  999.0,  999.0,  999.0,  999.0,  999.0,  999.0,  999.0,  999.0
2016/12/23 23:10,  999.0,   -0.1,    0.6,    0.8,    0.5,    1.2,    0.7,    1.0,    5.2,    7.2,    8.8,    7.6,    4.7,    6.8,    8.4,   11.3,   11.3,    9.6,   11.5,   11.9,   17.0,  999.0,  999.0,  999.0,  999.0,  999.0,  999.0,  999.0,  999.0,  999.0,  999.0,  999.0,  999.0,  999.0,  999.0,  999.0,  999.0,  999.0,  999.0,  999.0,  999.0,  999.0,  999.0,  999.0,   -0.1,  999.0,  999.0,  999.0,  999.0,    0.2,  999.0,  999.0,    0.0,  999.0,   -0.4,  999.0,  999.0,  999.0,  999.0,  999.0,  999.0,  999.0,  999.0,  999.0,  999.0,  999.0,  999.0,  999.0,  999.0,  999.0,  999.0,  999.0,  999.0,  999.0,  999.0,  999.0,  999.0,  999.0,  999.0,  999.0
2016/12/23 23:20,  999.0,  999.0,   -0.7,    0.5,    0.5,    0.1,    0.1,   -0.0,    2.2,    2.8,    3.1,    2.6,    2.9,    2.5,    3.1,    3.8,    6.5,    9.3,    8.6,   12.5,   16.9,   19.7,   19.3,   20.2,   23.3,  999.0,  999.0,  999.0,  999.0,  999.0,  999.0,  999.0,  999.0,  999.0,  999.0,  999.0,  999.0,  999.0,  999.0,  999.0,  999.0,  999.0,   -0.4,  999.0,  999.0,   -0.3,    0.3,  999.0,   -0.2,  999.0,  999.0,  999.0,   -0.0,    0.1,  999.0,    0.1,  999.0,    0.6,    0.3,   -0.0,  999.0,    0.2,  999.0,  999.0,  999.0,  999.0,  999.0,  999.0,  999.0,  999.0,  999.0,  999.0,    0.1,  999.0,  999.0,  999.0,  999.0,  999.0,  999.0,  999.0
2016/12/23 23:30,  999.0,  999.0,  999.0,  999.0,   -2.6,   -1.1,   -1.6,    1.5,    0.4,    2.5,    0.7,    1.1,    1.9,   10.1,   13.1,  999.0,   15.1,   12.8,   18.5,   17.9,   21.2,   19.8,   18.4,   17.9,  999.0,  999.0,  999.0,  999.0,  999.0,  999.0,  999.0,  999.0,  999.0,  999.0,  999.0,  999.0,  999.0,  999.0,  999.0,  999.0,  999.0,  999.0,  999.0,  999.0,  999.0,    0.2,  999.0,  999.0,  999.0,  999.0,  999.0,  999.0,  999.0,  999.0,  999.0,  999.0,  999.0,  999.0,  999.0,  999.0,  999.0,  999.0,  999.0,  999.0,  999.0,  999.0,  999.0,  999.0,  999.0,  999.0,  999.0,  999.0,  999.0,  999.0,  999.0,  999.0,  999.0,  999.0,  999.0,  999.0
2016/12/23 23:40,  999.0,   -0.3,  999.0,   -0.4,    2.0,   -0.1,   -0.3,   -0.2,    2.9,    4.1,    4.7,    7.0,    7.4,    7.3,    8.1,   10.0,   13.8,   13.4,   12.6,   12.6,   15.8,   16.1,   16.5,   18.6,   20.2,  999.0,  999.0,  999.0,  999.0,  999.0,  999.0,  999.0,  999.0,  999.0,  999.0,  999.0,  999.0,  999.0,  999.0,  999.0,  999.0,  999.0,  999.0,  999.0,    0.3,  999.0,  999.0,  999.0,  999.0,  999.0,  999.0,    0.1,  999.0,  999.0,  999.0,  999.0,  999.0,  999.0,  999.0,  999.0,  999.0,  999.0,  999.0,  999.0,  999.0,  999.0,  999.0,  999.0,  999.0,  999.0,  999.0,  999.0,  999.0,  999.0,  999.0,  999.0,  999.0,  999.0,  999.0,  999.0
2016/12/23 23:50,  999.0,  999.0,  999.0,  999.0,    2.8,    0.5,   -0.2,    1.7,    2.7,    5.4,    8.4,    7.7,    5.4,    6.8,   10.3,   12.1,   10.3,   13.2,   14.2,   14.8,   18.1,   17.3,   18.2,   19.2,  999.0,  999.0,  999.0,  999.0,  999.0,  999.0,  999.0,  999.0,  999.0,  999.0,  999.0,  999.0,  999.0,  999.0,  999.0,  999.0,  999.0,  999.0,  999.0,  999.0,   -0.0,  999.0,  999.0,  999.0,  999.0,  999.0,  999.0,  999.0,  999.0,  999.0,  999.0,  999.0,  999.0,  999.0,  999.0,  999.0,  999.0,  999.0,  999.0,  999.0,  999.0,  999.0,  999.0,  999.0,  999.0,  999.0,  999.0,  999.0,  999.0,  999.0,  999.0,  999.0,  999.0,  999.0,  999.0,  999.0
